Time,TemperatureF,DewpointF,PressureIn,WindDirection,WindDirectionDegrees,WindSpeedMPH,WindSpeedGustMPH,Humidity,HourlyPrecipIn,Conditions,Clouds,dailyrainin,SoftwareType,DateUTC
2014-01-12 00:00:00,38.0,27.7,29.81,South,180,6.0,11.0,66,0.00,,---,0.00,VWS V15.00,2014-01-12 06:00:00,
2014-01-12 00:02:00,38.0,27.7,29.81,South,170,7.0,11.0,66,0.00,,---,0.00,VWS V15.00,2014-01-12 06:02:00,
2014-01-12 00:03:00,38.0,27.7,29.81,SSE,157,7.0,11.0,66,0.00,,---,0.00,VWS V15.00,2014-01-12 06:03:00,
2014-01-12 00:07:00,38.2,27.9,29.81,South,174,7.0,13.0,66,0.00,,---,0.00,VWS V15.00,2014-01-12 06:07:00,
2014-01-12 00:08:00,38.2,27.9,29.81,SSE,167,7.0,13.0,66,0.00,,---,0.00,VWS V15.00,2014-01-12 06:08:00,
2014-01-12 00:12:00,38.2,27.9,29.81,South,173,9.0,11.0,66,0.00,,---,0.00,VWS V15.00,2014-01-12 06:12:00,
2014-01-12 00:13:00,38.2,27.9,29.81,South,175,6.0,11.0,66,0.00,,---,0.00,VWS V15.00,2014-01-12 06:13:00,
2014-01-12 00:17:00,38.2,27.9,29.79,South,180,4.0,14.0,66,0.00,,---,0.00,VWS V15.00,2014-01-12 06:17:00,
2014-01-12 00:18:00,38.2,27.5,29.79,SSE,165,6.0,14.0,65,0.00,,---,0.00,VWS V15.00,2014-01-12 06:18:00,
2014-01-12 00:22:00,38.2,27.9,29.79,SSE,164,8.0,12.0,66,0.00,,---,0.00,VWS V15.00,2014-01-12 06:22:00,
2014-01-12 00:23:00,38.2,27.5,29.79,SSE,167,10.0,12.0,65,0.00,,---,0.00,VWS V15.00,2014-01-12 06:23:00,
2014-01-12 00:27:00,38.2,27.5,29.79,SSE,167,4.0,12.0,65,0.00,,---,0.00,VWS V15.00,2014-01-12 06:27:00,
2014-01-12 00:28:00,38.2,27.5,29.79,SSE,161,7.0,12.0,65,0.00,,---,0.00,VWS V15.00,2014-01-12 06:28:00,
2014-01-12 00:29:00,38.2,27.5,29.79,SSE,163,8.0,12.0,65,0.00,,---,0.00,VWS V15.00,2014-01-12 06:29:00,
2014-01-12 00:30:00,38.0,27.3,29.78,SSE,158,8.0,12.0,65,0.00,,---,0.00,VWS V15.00,2014-01-12 06:30:00,
2014-01-12 00:32:00,38.0,27.3,29.78,SSE,160,10.0,12.0,65,0.00,,---,0.00,VWS V15.00,2014-01-12 06:32:00,
2014-01-12 00:33:00,38.0,27.3,29.78,SSE,150,10.0,12.0,65,0.00,,---,0.00,VWS V15.00,2014-01-12 06:33:00,
2014-01-12 00:34:00,38.0,27.7,29.78,SSE,162,7.0,14.0,66,0.00,,---,0.00,VWS V15.00,2014-01-12 06:34:00,
2014-01-12 00:37:00,38.0,27.3,29.78,SSE,158,9.0,14.0,65,0.00,,---,0.00,VWS V15.00,2014-01-12 06:37:00,
2014-01-12 00:38:00,38.0,27.3,29.78,South,171,5.0,14.0,65,0.00,,---,0.00,VWS V15.00,2014-01-12 06:38:00,
2014-01-12 00:39:00,38.0,27.3,29.78,SSE,157,9.0,14.0,65,0.00,,---,0.00,VWS V15.00,2014-01-12 06:39:00,
2014-01-12 00:40:00,38.0,27.3,29.78,SSE,158,7.0,14.0,65,0.00,,---,0.00,VWS V15.00,2014-01-12 06:40:00,
2014-01-12 00:42:00,38.0,27.3,29.78,SSE,151,8.0,16.0,65,0.00,,---,0.00,VWS V15.00,2014-01-12 06:42:00,
2014-01-12 00:43:00,38.2,27.5,29.78,South,180,7.0,16.0,65,0.00,,---,0.00,VWS V15.00,2014-01-12 06:43:00,
2014-01-12 00:44:00,38.2,27.5,29.78,SSE,153,7.0,16.0,65,0.00,,---,0.00,VWS V15.00,2014-01-12 06:44:00,
2014-01-12 00:47:00,38.0,27.3,29.76,South,169,2.0,16.0,65,0.00,,---,0.00,VWS V15.00,2014-01-12 06:47:00,
2014-01-12 00:48:00,38.0,27.3,29.76,SSE,162,6.0,16.0,65,0.00,,---,0.00,VWS V15.00,2014-01-12 06:48:00,
2014-01-12 00:49:00,38.0,27.3,29.76,South,171,6.0,16.0,65,0.00,,---,0.00,VWS V15.00,2014-01-12 06:49:00,
2014-01-12 00:50:00,38.0,27.3,29.76,SSE,158,7.0,16.0,65,0.00,,---,0.00,VWS V15.00,2014-01-12 06:50:00,
2014-01-12 00:52:00,38.0,27.3,29.76,South,169,7.0,11.0,65,0.00,,---,0.00,VWS V15.00,2014-01-12 06:52:00,
2014-01-12 00:53:00,38.0,27.3,29.76,SSW,195,7.0,11.0,65,0.00,,---,0.00,VWS V15.00,2014-01-12 06:53:00,
2014-01-12 00:54:00,38.0,27.3,29.76,South,186,5.0,11.0,65,0.00,,---,0.00,VWS V15.00,2014-01-12 06:54:00,
2014-01-12 00:57:00,38.0,27.3,29.76,South,170,3.0,11.0,65,0.00,,---,0.00,VWS V15.00,2014-01-12 06:57:00,
2014-01-12 00:58:00,38.0,27.3,29.76,SSE,167,7.0,11.0,65,0.00,,---,0.00,VWS V15.00,2014-01-12 06:58:00,
2014-01-12 00:59:00,38.0,27.3,29.76,South,169,4.0,11.0,65,0.00,,---,0.00,VWS V15.00,2014-01-12 06:59:00,
2014-01-12 01:02:00,38.2,27.5,29.75,SSE,161,2.0,10.0,65,0.00,,---,0.00,VWS V15.00,2014-01-12 07:02:00,
2014-01-12 01:03:00,38.2,27.5,29.75,South,169,3.0,10.0,65,0.00,,---,0.00,VWS V15.00,2014-01-12 07:03:00,
2014-01-12 01:04:00,38.2,27.5,29.75,SSW,194,5.0,10.0,65,0.00,,---,0.00,VWS V15.00,2014-01-12 07:04:00,
2014-01-12 01:07:00,38.3,27.6,29.75,SSW,204,4.0,10.0,65,0.00,,---,0.00,VWS V15.00,2014-01-12 07:07:00,
2014-01-12 01:08:00,38.3,27.2,29.75,South,190,5.0,10.0,64,0.00,,---,0.00,VWS V15.00,2014-01-12 07:08:00,
2014-01-12 01:09:00,38.5,27.4,29.75,South,171,3.0,10.0,64,0.00,,---,0.00,VWS V15.00,2014-01-12 07:09:00,
2014-01-12 01:10:00,38.5,27.4,29.75,South,180,4.0,7.0,64,0.00,,---,0.00,VWS V15.00,2014-01-12 07:10:00,
2014-01-12 01:12:00,38.5,27.4,29.75,South,183,3.0,8.0,64,0.00,,---,0.00,VWS V15.00,2014-01-12 07:12:00,
2014-01-12 01:13:00,38.3,27.2,29.75,SSW,205,5.0,8.0,64,0.00,,---,0.00,VWS V15.00,2014-01-12 07:13:00,
2014-01-12 01:14:00,38.3,27.2,29.74,South,180,3.0,8.0,64,0.00,,---,0.00,VWS V15.00,2014-01-12 07:14:00,
2014-01-12 01:15:00,38.3,27.2,29.74,SSW,195,3.0,8.0,64,0.00,,---,0.00,VWS V15.00,2014-01-12 07:15:00,
2014-01-12 01:17:00,38.3,27.2,29.74,SW,216,3.0,8.0,64,0.00,,---,0.00,VWS V15.00,2014-01-12 07:17:00,
2014-01-12 01:18:00,38.3,27.2,29.74,South,181,3.0,8.0,64,0.00,,---,0.00,VWS V15.00,2014-01-12 07:18:00,
2014-01-12 01:19:00,38.3,27.2,29.74,South,171,3.0,8.0,64,0.00,,---,0.00,VWS V15.00,2014-01-12 07:19:00,
2014-01-12 01:20:00,38.3,27.2,29.74,South,188,4.0,8.0,64,0.00,,---,0.00,VWS V15.00,2014-01-12 07:20:00,
2014-01-12 01:22:00,38.3,27.2,29.74,South,188,5.0,5.0,64,0.00,,---,0.00,VWS V15.00,2014-01-12 07:22:00,
2014-01-12 01:23:00,38.3,27.2,29.74,SSW,194,3.0,6.0,64,0.00,,---,0.00,VWS V15.00,2014-01-12 07:23:00,
2014-01-12 01:24:00,38.3,27.2,29.74,South,188,3.0,6.0,64,0.00,,---,0.00,VWS V15.00,2014-01-12 07:24:00,
2014-01-12 01:25:00,38.3,27.2,29.74,SSW,195,4.0,6.0,64,0.00,,---,0.00,VWS V15.00,2014-01-12 07:25:00,
2014-01-12 01:28:00,38.3,27.2,29.74,SSW,193,3.0,6.0,64,0.00,,---,0.00,VWS V15.00,2014-01-12 07:28:00,
2014-01-12 01:29:00,38.3,27.2,29.73,SSW,201,3.0,6.0,64,0.00,,---,0.00,VWS V15.00,2014-01-12 07:29:00,
2014-01-12 01:30:00,38.2,27.1,29.73,SSW,200,3.0,4.0,64,0.00,,---,0.00,VWS V15.00,2014-01-12 07:30:00,
2014-01-12 01:33:00,38.2,27.1,29.73,South,177,2.0,6.0,64,0.00,,---,0.00,VWS V15.00,2014-01-12 07:33:00,
2014-01-12 01:35:00,38.2,27.1,29.73,South,190,4.0,10.0,64,0.00,,---,0.00,VWS V15.00,2014-01-12 07:35:00,
2014-01-12 01:38:00,38.2,27.1,29.73,SSW,209,3.0,10.0,64,0.00,,---,0.00,VWS V15.00,2014-01-12 07:38:00,
2014-01-12 01:40:00,38.2,27.5,29.73,SSW,210,4.0,5.0,65,0.00,,---,0.00,VWS V15.00,2014-01-12 07:40:00,
2014-01-12 01:41:00,38.2,27.5,29.73,SSW,209,4.0,5.0,65,0.00,,---,0.00,VWS V15.00,2014-01-12 07:41:00,
2014-01-12 01:43:00,38.2,27.5,29.73,South,173,3.0,5.0,65,0.00,,---,0.00,VWS V15.00,2014-01-12 07:43:00,
2014-01-12 01:44:00,38.2,27.5,29.73,South,191,4.0,5.0,65,0.00,,---,0.00,VWS V15.00,2014-01-12 07:44:00,
2014-01-12 01:45:00,38.2,27.1,29.71,SSW,192,2.0,5.0,64,0.00,,---,0.00,VWS V15.00,2014-01-12 07:45:00,
2014-01-12 01:46:00,38.2,27.1,29.71,South,184,2.0,5.0,64,0.00,,---,0.00,VWS V15.00,2014-01-12 07:46:00,
2014-01-12 01:48:00,38.3,27.2,29.71,SSE,164,2.0,5.0,64,0.00,,---,0.00,VWS V15.00,2014-01-12 07:48:00,
2014-01-12 01:49:00,38.5,27.4,29.71,SSE,165,2.0,5.0,64,0.00,,---,0.00,VWS V15.00,2014-01-12 07:49:00,
2014-01-12 01:50:00,38.5,27.0,29.71,SSE,165,1.0,3.0,63,0.00,,---,0.00,VWS V15.00,2014-01-12 07:50:00,
2014-01-12 01:51:00,38.5,27.0,29.71,South,172,2.0,4.0,63,0.00,,---,0.00,VWS V15.00,2014-01-12 07:51:00,
2014-01-12 01:53:00,38.6,27.1,29.71,South,175,0.0,4.0,63,0.00,,---,0.00,VWS V15.00,2014-01-12 07:53:00,
2014-01-12 01:54:00,38.6,27.1,29.71,South,175,1.0,4.0,63,0.00,,---,0.00,VWS V15.00,2014-01-12 07:54:00,
2014-01-12 01:55:00,38.6,27.1,29.71,SSE,166,3.0,4.0,63,0.00,,---,0.00,VWS V15.00,2014-01-12 07:55:00,
2014-01-12 01:56:00,38.6,27.1,29.71,South,190,2.0,4.0,63,0.00,,---,0.00,VWS V15.00,2014-01-12 07:56:00,
2014-01-12 01:58:00,38.6,27.1,29.71,SSW,211,4.0,6.0,63,0.00,,---,0.00,VWS V15.00,2014-01-12 07:58:00,
2014-01-12 01:59:00,38.6,27.1,29.71,SW,217,4.0,6.0,63,0.00,,---,0.00,VWS V15.00,2014-01-12 07:59:00,
2014-01-12 02:00:00,38.6,27.1,29.70,SSW,208,5.0,5.0,63,0.00,,---,0.00,VWS V15.00,2014-01-12 08:00:00,
2014-01-12 02:01:00,38.6,27.1,29.70,SSW,193,4.0,5.0,63,0.00,,---,0.00,VWS V15.00,2014-01-12 08:01:00,
2014-01-12 02:03:00,38.8,26.9,29.70,South,181,3.0,8.0,62,0.00,,---,0.00,VWS V15.00,2014-01-12 08:03:00,
2014-01-12 02:04:00,38.9,27.0,29.70,South,178,4.0,8.0,62,0.00,,---,0.00,VWS V15.00,2014-01-12 08:04:00,
2014-01-12 02:06:00,39.2,26.9,29.70,SSW,196,7.0,8.0,61,0.00,,---,0.00,VWS V15.00,2014-01-12 08:06:00,
2014-01-12 02:08:00,39.5,27.2,29.70,SSW,202,8.0,12.0,61,0.00,,---,0.00,VWS V15.00,2014-01-12 08:08:00,
2014-01-12 02:09:00,39.5,27.2,29.70,SSW,200,6.0,12.0,61,0.00,,---,0.00,VWS V15.00,2014-01-12 08:09:00,
2014-01-12 02:10:00,39.5,27.2,29.70,SSW,202,6.0,12.0,61,0.00,,---,0.00,VWS V15.00,2014-01-12 08:10:00,
2014-01-12 02:11:00,39.5,27.2,29.70,South,190,11.0,12.0,61,0.00,,---,0.00,VWS V15.00,2014-01-12 08:11:00,
2014-01-12 02:13:00,39.8,27.1,29.70,SSW,209,9.0,13.0,60,0.00,,---,0.00,VWS V15.00,2014-01-12 08:13:00,
2014-01-12 02:14:00,39.8,27.1,29.70,SSE,159,7.0,13.0,60,0.00,,---,0.00,VWS V15.00,2014-01-12 08:14:00,
2014-01-12 02:16:00,39.9,26.8,29.69,South,184,5.0,13.0,59,0.00,,---,0.00,VWS V15.00,2014-01-12 08:16:00,
2014-01-12 02:18:00,39.9,26.8,29.69,SSW,210,5.0,13.0,59,0.00,,---,0.00,VWS V15.00,2014-01-12 08:18:00,
2014-01-12 02:19:00,39.9,26.8,29.69,SSW,207,6.0,13.0,59,0.00,,---,0.00,VWS V15.00,2014-01-12 08:19:00,
2014-01-12 02:20:00,39.9,26.8,29.69,SSW,202,7.0,13.0,59,0.00,,---,0.00,VWS V15.00,2014-01-12 08:20:00,
2014-01-12 02:21:00,39.9,26.8,29.69,South,191,5.0,9.0,59,0.00,,---,0.00,VWS V15.00,2014-01-12 08:21:00,
2014-01-12 02:22:00,39.9,26.8,29.69,SSW,200,6.0,9.0,59,0.00,,---,0.00,VWS V15.00,2014-01-12 08:22:00,
2014-01-12 02:23:00,39.9,26.8,29.69,SSW,204,6.0,9.0,59,0.00,,---,0.00,VWS V15.00,2014-01-12 08:23:00,
2014-01-12 02:24:00,39.9,26.8,29.69,SSE,163,7.0,11.0,59,0.00,,---,0.00,VWS V15.00,2014-01-12 08:24:00,
2014-01-12 02:26:00,39.9,26.8,29.69,SSW,206,5.0,11.0,59,0.00,,---,0.00,VWS V15.00,2014-01-12 08:26:00,
2014-01-12 02:27:00,39.9,26.8,29.69,SSW,196,9.0,11.0,59,0.00,,---,0.00,VWS V15.00,2014-01-12 08:27:00,
2014-01-12 02:28:00,40.1,26.5,29.69,SSW,202,5.0,11.0,58,0.00,,---,0.00,VWS V15.00,2014-01-12 08:28:00,
2014-01-12 02:29:00,40.2,26.6,29.69,SSW,200,5.0,11.0,58,0.00,,---,0.00,VWS V15.00,2014-01-12 08:29:00,
2014-01-12 02:30:00,40.2,26.6,29.69,SSW,202,6.0,11.0,58,0.00,,---,0.00,VWS V15.00,2014-01-12 08:30:00,
2014-01-12 02:31:00,40.3,26.7,29.69,SSW,194,7.0,11.0,58,0.00,,---,0.00,VWS V15.00,2014-01-12 08:31:00,
2014-01-12 02:32:00,40.5,26.5,29.69,SSW,201,7.0,11.0,57,0.00,,---,0.00,VWS V15.00,2014-01-12 08:32:00,
2014-01-12 02:33:00,40.5,26.5,29.69,SSE,162,5.0,11.0,57,0.00,,---,0.00,VWS V15.00,2014-01-12 08:33:00,
2014-01-12 02:34:00,40.6,26.6,29.69,SSE,167,5.0,11.0,57,0.00,,---,0.00,VWS V15.00,2014-01-12 08:34:00,
2014-01-12 02:36:00,40.8,26.8,29.69,SSW,205,7.0,11.0,57,0.00,,---,0.00,VWS V15.00,2014-01-12 08:36:00,
2014-01-12 02:37:00,40.8,26.8,29.69,SSE,156,6.0,11.0,57,0.00,,---,0.00,VWS V15.00,2014-01-12 08:37:00,
2014-01-12 02:38:00,40.8,26.8,29.69,SSW,207,9.0,11.0,57,0.00,,---,0.00,VWS V15.00,2014-01-12 08:38:00,
2014-01-12 02:39:00,40.8,26.8,29.69,South,169,6.0,11.0,57,0.00,,---,0.00,VWS V15.00,2014-01-12 08:39:00,
2014-01-12 02:40:00,40.8,26.8,29.69,SSE,158,6.0,12.0,57,0.00,,---,0.00,VWS V15.00,2014-01-12 08:40:00,
2014-01-12 02:41:00,40.8,26.8,29.69,South,178,4.0,11.0,57,0.00,,---,0.00,VWS V15.00,2014-01-12 08:41:00,
2014-01-12 02:42:00,40.8,26.3,29.69,South,183,3.0,11.0,56,0.00,,---,0.00,VWS V15.00,2014-01-12 08:42:00,
2014-01-12 02:43:00,40.9,26.4,29.69,South,171,7.0,11.0,56,0.00,,---,0.00,VWS V15.00,2014-01-12 08:43:00,
2014-01-12 02:44:00,41.1,26.6,29.68,South,180,9.0,11.0,56,0.00,,---,0.00,VWS V15.00,2014-01-12 08:44:00,
2014-01-12 02:46:00,41.3,25.9,29.68,SSE,157,11.0,16.0,54,0.00,,---,0.00,VWS V15.00,2014-01-12 08:46:00,
2014-01-12 02:47:00,41.5,26.1,29.68,SSW,192,19.0,20.0,54,0.00,,---,0.00,VWS V15.00,2014-01-12 08:47:00,
2014-01-12 02:48:00,41.6,26.2,29.68,South,178,11.0,20.0,54,0.00,,---,0.00,VWS V15.00,2014-01-12 08:48:00,
2014-01-12 02:49:00,41.6,26.2,29.68,South,172,9.0,20.0,54,0.00,,---,0.00,VWS V15.00,2014-01-12 08:49:00,
2014-01-12 02:50:00,41.6,26.2,29.68,South,180,9.0,20.0,54,0.00,,---,0.00,VWS V15.00,2014-01-12 08:50:00,
2014-01-12 02:51:00,41.6,26.2,29.68,SSW,198,11.0,17.0,54,0.00,,---,0.00,VWS V15.00,2014-01-12 08:51:00,
2014-01-12 02:52:00,41.6,26.2,29.68,SSW,194,12.0,20.0,54,0.00,,---,0.00,VWS V15.00,2014-01-12 08:52:00,
2014-01-12 02:53:00,41.6,26.2,29.68,South,180,9.0,20.0,54,0.00,,---,0.00,VWS V15.00,2014-01-12 08:53:00,
2014-01-12 02:54:00,41.6,26.2,29.68,South,175,6.0,20.0,54,0.00,,---,0.00,VWS V15.00,2014-01-12 08:54:00,
2014-01-12 02:56:00,41.6,26.2,29.68,SSW,198,14.0,20.0,54,0.00,,---,0.00,VWS V15.00,2014-01-12 08:56:00,
2014-01-12 02:57:00,41.5,26.1,29.68,SSW,202,11.0,20.0,54,0.00,,---,0.00,VWS V15.00,2014-01-12 08:57:00,
2014-01-12 02:58:00,41.5,26.1,29.68,South,178,10.0,20.0,54,0.00,,---,0.00,VWS V15.00,2014-01-12 08:58:00,
2014-01-12 02:59:00,41.5,26.1,29.67,SSE,167,7.0,20.0,54,0.00,,---,0.00,VWS V15.00,2014-01-12 08:59:00,
2014-01-12 03:00:00,41.5,26.1,29.67,South,180,11.0,20.0,54,0.00,,---,0.00,VWS V15.00,2014-01-12 09:00:00,
2014-01-12 03:01:00,41.5,26.1,29.67,SSE,165,10.0,15.0,54,0.00,,---,0.00,VWS V15.00,2014-01-12 09:01:00,
2014-01-12 03:03:00,41.3,25.9,29.67,South,177,13.0,17.0,54,0.00,,---,0.00,VWS V15.00,2014-01-12 09:03:00,
2014-01-12 03:04:00,41.3,25.9,29.67,South,175,8.0,17.0,54,0.00,,---,0.00,VWS V15.00,2014-01-12 09:04:00,
2014-01-12 03:05:00,41.3,25.9,29.67,South,173,7.0,17.0,54,0.00,,---,0.00,VWS V15.00,2014-01-12 09:05:00,
2014-01-12 03:06:00,41.2,26.3,29.67,South,188,10.0,17.0,55,0.00,,---,0.00,VWS V15.00,2014-01-12 09:06:00,
2014-01-12 03:08:00,41.2,26.3,29.67,SSE,159,13.0,17.0,55,0.00,,---,0.00,VWS V15.00,2014-01-12 09:08:00,
2014-01-12 03:10:00,41.2,26.3,29.67,South,173,5.0,17.0,55,0.00,,---,0.00,VWS V15.00,2014-01-12 09:10:00,
2014-01-12 03:12:00,41.2,26.3,29.67,South,172,7.0,12.0,55,0.00,,---,0.00,VWS V15.00,2014-01-12 09:12:00,
2014-01-12 03:13:00,41.2,26.3,29.67,South,184,15.0,16.0,55,0.00,,---,0.00,VWS V15.00,2014-01-12 09:13:00,
2014-01-12 03:15:00,41.2,26.3,29.66,South,182,8.0,16.0,55,0.00,,---,0.00,VWS V15.00,2014-01-12 09:15:00,
2014-01-12 03:17:00,41.1,26.2,29.66,South,183,13.0,16.0,55,0.00,,---,0.00,VWS V15.00,2014-01-12 09:17:00,
2014-01-12 03:18:00,41.1,26.2,29.66,SSE,165,11.0,16.0,55,0.00,,---,0.00,VWS V15.00,2014-01-12 09:18:00,
2014-01-12 03:19:00,41.1,26.2,29.66,SSE,159,11.0,16.0,55,0.00,,---,0.00,VWS V15.00,2014-01-12 09:19:00,
2014-01-12 03:20:00,40.9,26.4,29.66,South,172,7.0,16.0,56,0.00,,---,0.00,VWS V15.00,2014-01-12 09:20:00,
2014-01-12 03:22:00,40.8,26.3,29.66,SSE,162,12.0,14.0,56,0.00,,---,0.00,VWS V15.00,2014-01-12 09:22:00,
2014-01-12 03:23:00,40.8,26.3,29.66,South,190,6.0,14.0,56,0.00,,---,0.00,VWS V15.00,2014-01-12 09:23:00,
2014-01-12 03:24:00,40.8,26.3,29.66,South,186,10.0,14.0,56,0.00,,---,0.00,VWS V15.00,2014-01-12 09:24:00,
2014-01-12 03:25:00,40.8,26.3,29.66,South,190,13.0,14.0,56,0.00,,---,0.00,VWS V15.00,2014-01-12 09:25:00,
2014-01-12 03:27:00,40.8,26.3,29.66,South,182,12.0,15.0,56,0.00,,---,0.00,VWS V15.00,2014-01-12 09:27:00,
2014-01-12 03:29:00,40.9,26.4,29.66,SSW,198,10.0,15.0,56,0.00,,---,0.00,VWS V15.00,2014-01-12 09:29:00,
2014-01-12 03:30:00,40.9,26.0,29.65,SSE,159,10.0,15.0,55,0.00,,---,0.00,VWS V15.00,2014-01-12 09:30:00,
2014-01-12 03:32:00,41.2,26.3,29.65,SSE,158,11.0,17.0,55,0.00,,---,0.00,VWS V15.00,2014-01-12 09:32:00,
2014-01-12 03:34:00,41.2,25.8,29.65,SSE,168,11.0,17.0,54,0.00,,---,0.00,VWS V15.00,2014-01-12 09:34:00,
2014-01-12 03:35:00,41.2,25.8,29.65,South,186,11.0,17.0,54,0.00,,---,0.00,VWS V15.00,2014-01-12 09:35:00,
2014-01-12 03:37:00,41.2,26.3,29.65,South,185,11.0,17.0,55,0.00,,---,0.00,VWS V15.00,2014-01-12 09:37:00,
2014-01-12 03:39:00,41.2,26.3,29.65,SSE,163,9.0,17.0,55,0.00,,---,0.00,VWS V15.00,2014-01-12 09:39:00,
2014-01-12 03:40:00,41.1,26.2,29.65,South,175,13.0,13.0,55,0.00,,---,0.00,VWS V15.00,2014-01-12 09:40:00,
2014-01-12 03:43:00,41.2,25.8,29.65,SSE,165,10.0,16.0,54,0.00,,---,0.00,VWS V15.00,2014-01-12 09:43:00,
2014-01-12 03:44:00,41.3,25.9,29.65,SSE,160,12.0,16.0,54,0.00,,---,0.00,VWS V15.00,2014-01-12 09:44:00,
2014-01-12 03:45:00,41.3,25.9,29.64,SSE,163,12.0,16.0,54,0.00,,---,0.00,VWS V15.00,2014-01-12 09:45:00,
2014-01-12 03:48:00,41.3,25.9,29.64,SSW,200,7.0,16.0,54,0.00,,---,0.00,VWS V15.00,2014-01-12 09:48:00,
2014-01-12 03:49:00,41.3,25.9,29.64,SSW,206,10.0,16.0,54,0.00,,---,0.00,VWS V15.00,2014-01-12 09:49:00,
2014-01-12 03:50:00,41.3,25.9,29.64,South,184,14.0,14.0,54,0.00,,---,0.00,VWS V15.00,2014-01-12 09:50:00,
2014-01-12 03:53:00,41.5,26.1,29.64,SSE,167,11.0,18.0,54,0.00,,---,0.00,VWS V15.00,2014-01-12 09:53:00,
2014-01-12 03:54:00,41.6,26.2,29.64,SSW,192,13.0,18.0,54,0.00,,---,0.00,VWS V15.00,2014-01-12 09:54:00,
2014-01-12 03:55:00,41.6,26.2,29.64,SSE,155,9.0,19.0,54,0.00,,---,0.00,VWS V15.00,2014-01-12 09:55:00,
2014-01-12 03:58:00,41.8,25.9,29.64,South,190,10.0,19.0,53,0.00,,---,0.00,VWS V15.00,2014-01-12 09:58:00,
2014-01-12 03:59:00,41.8,25.9,29.64,South,180,13.0,21.0,53,0.00,,---,0.00,VWS V15.00,2014-01-12 09:59:00,
2014-01-12 04:00:00,41.8,25.9,29.63,South,172,16.0,17.0,53,0.00,,---,0.00,VWS V15.00,2014-01-12 10:00:00,
2014-01-12 04:03:00,41.9,26.0,29.63,South,179,11.0,17.0,53,0.00,,---,0.00,VWS V15.00,2014-01-12 10:03:00,
2014-01-12 04:04:00,41.9,25.6,29.63,SSE,161,13.0,17.0,52,0.00,,---,0.00,VWS V15.00,2014-01-12 10:04:00,
2014-01-12 04:05:00,41.9,26.0,29.63,SSW,192,10.0,17.0,53,0.00,,---,0.00,VWS V15.00,2014-01-12 10:05:00,
2014-01-12 04:06:00,41.9,26.0,29.63,SSW,209,13.0,17.0,53,0.00,,---,0.00,VWS V15.00,2014-01-12 10:06:00,
2014-01-12 04:08:00,41.8,25.9,29.63,SSW,211,9.0,17.0,53,0.00,,---,0.00,VWS V15.00,2014-01-12 10:08:00,
2014-01-12 04:09:00,41.8,25.9,29.63,SSE,158,10.0,17.0,53,0.00,,---,0.00,VWS V15.00,2014-01-12 10:09:00,
2014-01-12 04:10:00,41.8,25.9,29.63,SSE,165,9.0,17.0,53,0.00,,---,0.00,VWS V15.00,2014-01-12 10:10:00,
2014-01-12 04:11:00,41.8,25.9,29.63,SSW,194,12.0,12.0,53,0.00,,---,0.00,VWS V15.00,2014-01-12 10:11:00,
2014-01-12 04:14:00,41.8,25.9,29.63,SSE,163,15.0,15.0,53,0.00,,---,0.00,VWS V15.00,2014-01-12 10:14:00,
2014-01-12 04:15:00,41.8,25.9,29.63,South,188,12.0,15.0,53,0.00,,---,0.00,VWS V15.00,2014-01-12 10:15:00,
2014-01-12 04:16:00,41.8,25.9,29.63,South,184,10.0,15.0,53,0.00,,---,0.00,VWS V15.00,2014-01-12 10:16:00,
2014-01-12 04:19:00,41.6,25.8,29.63,SSE,157,10.0,15.0,53,0.00,,---,0.00,VWS V15.00,2014-01-12 10:19:00,
2014-01-12 04:20:00,41.6,25.8,29.63,South,178,6.0,7.0,53,0.00,,---,0.00,VWS V15.00,2014-01-12 10:20:00,
2014-01-12 04:21:00,41.6,25.8,29.63,South,189,11.0,13.0,53,0.00,,---,0.00,VWS V15.00,2014-01-12 10:21:00,
2014-01-12 04:24:00,41.5,26.1,29.63,South,187,10.0,13.0,54,0.00,,---,0.00,VWS V15.00,2014-01-12 10:24:00,
2014-01-12 04:25:00,41.5,26.1,29.63,SSW,198,6.0,13.0,54,0.00,,---,0.00,VWS V15.00,2014-01-12 10:25:00,
2014-01-12 04:26:00,41.5,25.7,29.63,South,173,7.0,13.0,53,0.00,,---,0.00,VWS V15.00,2014-01-12 10:26:00,
2014-01-12 04:29:00,41.5,25.7,29.63,SSW,198,6.0,13.0,53,0.00,,---,0.00,VWS V15.00,2014-01-12 10:29:00,
2014-01-12 04:30:00,41.5,26.1,29.63,South,191,6.0,13.0,54,0.00,,---,0.00,VWS V15.00,2014-01-12 10:30:00,
2014-01-12 04:31:00,41.5,26.1,29.63,SSW,194,6.0,9.0,54,0.00,,---,0.00,VWS V15.00,2014-01-12 10:31:00,
2014-01-12 04:34:00,41.5,25.7,29.63,South,182,5.0,9.0,53,0.00,,---,0.00,VWS V15.00,2014-01-12 10:34:00,
2014-01-12 04:35:00,41.5,25.7,29.63,South,170,6.0,9.0,53,0.00,,---,0.00,VWS V15.00,2014-01-12 10:35:00,
2014-01-12 04:36:00,41.6,25.8,29.63,SSW,199,8.0,9.0,53,0.00,,---,0.00,VWS V15.00,2014-01-12 10:36:00,
2014-01-12 04:39:00,41.8,25.5,29.63,South,188,5.0,9.0,52,0.00,,---,0.00,VWS V15.00,2014-01-12 10:39:00,
2014-01-12 04:40:00,41.9,25.6,29.63,South,180,5.0,9.0,52,0.00,,---,0.00,VWS V15.00,2014-01-12 10:40:00,
2014-01-12 04:41:00,41.9,25.6,29.63,South,186,5.0,6.0,52,0.00,,---,0.00,VWS V15.00,2014-01-12 10:41:00,
2014-01-12 04:44:00,42.2,25.4,29.62,South,169,5.0,10.0,51,0.00,,---,0.00,VWS V15.00,2014-01-12 10:44:00,
2014-01-12 04:45:00,42.2,25.4,29.62,South,180,5.0,10.0,51,0.00,,---,0.00,VWS V15.00,2014-01-12 10:45:00,
2014-01-12 04:46:00,42.2,25.4,29.62,South,183,3.0,10.0,51,0.00,,---,0.00,VWS V15.00,2014-01-12 10:46:00,
2014-01-12 04:49:00,42.3,25.5,29.62,SSE,167,6.0,10.0,51,0.00,,---,0.00,VWS V15.00,2014-01-12 10:49:00,
2014-01-12 04:50:00,42.3,25.5,29.62,South,170,5.0,10.0,51,0.00,,---,0.00,VWS V15.00,2014-01-12 10:50:00,
2014-01-12 04:51:00,42.5,25.7,29.62,South,186,6.0,6.0,51,0.00,,---,0.00,VWS V15.00,2014-01-12 10:51:00,
2014-01-12 04:54:00,42.5,25.7,29.62,SSE,161,5.0,10.0,51,0.00,,---,0.00,VWS V15.00,2014-01-12 10:54:00,
2014-01-12 04:55:00,42.5,25.7,29.62,SSE,167,7.0,10.0,51,0.00,,---,0.00,VWS V15.00,2014-01-12 10:55:00,
2014-01-12 04:56:00,42.5,25.7,29.62,SSE,159,6.0,10.0,51,0.00,,---,0.00,VWS V15.00,2014-01-12 10:56:00,
2014-01-12 04:57:00,42.5,25.7,29.62,SSE,150,7.0,10.0,51,0.00,,---,0.00,VWS V15.00,2014-01-12 10:57:00,
2014-01-12 04:59:00,42.3,25.5,29.61,SSE,153,5.0,10.0,51,0.00,,---,0.00,VWS V15.00,2014-01-12 10:59:00,
2014-01-12 05:00:00,42.3,25.5,29.61,SSE,157,6.0,10.0,51,0.00,,---,0.00,VWS V15.00,2014-01-12 11:00:00,
2014-01-12 05:01:00,42.3,25.5,29.61,SSE,154,5.0,7.0,51,0.00,,---,0.00,VWS V15.00,2014-01-12 11:01:00,
2014-01-12 05:02:00,42.3,25.5,29.61,SSE,161,3.0,7.0,51,0.00,,---,0.00,VWS V15.00,2014-01-12 11:02:00,
2014-01-12 05:04:00,42.3,25.5,29.61,SSE,149,4.0,7.0,51,0.00,,---,0.00,VWS V15.00,2014-01-12 11:04:00,
2014-01-12 05:05:00,42.3,25.5,29.61,SSE,153,6.0,7.0,51,0.00,,---,0.00,VWS V15.00,2014-01-12 11:05:00,
2014-01-12 05:06:00,42.3,25.5,29.61,SSE,160,5.0,7.0,51,0.00,,---,0.00,VWS V15.00,2014-01-12 11:06:00,
2014-01-12 05:07:00,42.5,25.2,29.61,SSE,159,3.0,9.0,50,0.00,,---,0.00,VWS V15.00,2014-01-12 11:07:00,
2014-01-12 05:10:00,42.5,25.2,29.61,SSE,151,5.0,6.0,50,0.00,,---,0.00,VWS V15.00,2014-01-12 11:10:00,
2014-01-12 05:11:00,42.6,25.3,29.61,SSE,152,6.0,8.0,50,0.00,,---,0.00,VWS V15.00,2014-01-12 11:11:00,
2014-01-12 05:12:00,42.6,25.3,29.61,SE,144,6.0,8.0,50,0.00,,---,0.00,VWS V15.00,2014-01-12 11:12:00,
2014-01-12 05:15:00,42.5,25.2,29.60,SSE,148,6.0,8.0,50,0.00,,---,0.00,VWS V15.00,2014-01-12 11:15:00,
2014-01-12 05:16:00,42.5,25.2,29.60,SSE,158,2.0,8.0,50,0.00,,---,0.00,VWS V15.00,2014-01-12 11:16:00,
2014-01-12 05:17:00,42.5,25.2,29.60,SSE,166,3.0,8.0,50,0.00,,---,0.00,VWS V15.00,2014-01-12 11:17:00,
2014-01-12 05:20:00,42.3,25.0,29.60,South,169,2.0,2.0,50,0.00,,---,0.00,VWS V15.00,2014-01-12 11:20:00,
2014-01-12 05:21:00,42.3,25.0,29.60,SSE,167,4.0,4.0,50,0.00,,---,0.00,VWS V15.00,2014-01-12 11:21:00,
2014-01-12 05:22:00,42.5,25.2,29.60,SSE,152,4.0,5.0,50,0.00,,---,0.00,VWS V15.00,2014-01-12 11:22:00,
2014-01-12 05:25:00,42.3,25.0,29.60,SSE,164,4.0,6.0,50,0.00,,---,0.00,VWS V15.00,2014-01-12 11:25:00,
2014-01-12 05:26:00,42.3,25.0,29.60,SSE,157,5.0,6.0,50,0.00,,---,0.00,VWS V15.00,2014-01-12 11:26:00,
2014-01-12 05:27:00,42.3,25.5,29.60,SSE,161,3.0,6.0,51,0.00,,---,0.00,VWS V15.00,2014-01-12 11:27:00,
2014-01-12 05:30:00,42.2,25.4,29.60,SSE,162,2.0,3.0,51,0.00,,---,0.00,VWS V15.00,2014-01-12 11:30:00,
2014-01-12 05:31:00,42.2,25.4,29.60,SSE,168,1.0,3.0,51,0.00,,---,0.00,VWS V15.00,2014-01-12 11:31:00,
2014-01-12 05:32:00,42.1,25.3,29.60,SSE,167,3.0,4.0,51,0.00,,---,0.00,VWS V15.00,2014-01-12 11:32:00,
2014-01-12 05:35:00,41.9,25.1,29.60,SSE,160,2.0,4.0,51,0.00,,---,0.00,VWS V15.00,2014-01-12 11:35:00,
2014-01-12 05:36:00,41.9,25.1,29.60,SSE,160,2.0,4.0,51,0.00,,---,0.00,VWS V15.00,2014-01-12 11:36:00,
2014-01-12 05:37:00,41.9,25.1,29.60,SSE,160,2.0,4.0,51,0.00,,---,0.00,VWS V15.00,2014-01-12 11:37:00,
2014-01-12 05:40:00,41.9,25.1,29.60,SE,144,6.0,6.0,51,0.00,,---,0.00,VWS V15.00,2014-01-12 11:40:00,
2014-01-12 05:41:00,41.9,25.1,29.60,SE,138,5.0,6.0,51,0.00,,---,0.00,VWS V15.00,2014-01-12 11:41:00,
2014-01-12 05:42:00,42.1,25.3,29.60,SE,136,7.0,9.0,51,0.00,,---,0.00,VWS V15.00,2014-01-12 11:42:00,
2014-01-12 05:45:00,42.3,25.5,29.58,SE,128,8.0,9.0,51,0.00,,---,0.00,VWS V15.00,2014-01-12 11:45:00,
2014-01-12 05:46:00,42.3,25.5,29.58,SE,129,7.0,9.0,51,0.00,,---,0.00,VWS V15.00,2014-01-12 11:46:00,
2014-01-12 05:47:00,42.3,25.5,29.58,SE,143,7.0,9.0,51,0.00,,---,0.00,VWS V15.00,2014-01-12 11:47:00,
2014-01-12 05:50:00,42.5,25.2,29.58,SE,124,5.0,6.0,50,0.00,,---,0.00,VWS V15.00,2014-01-12 11:50:00,
2014-01-12 05:51:00,42.6,25.3,29.58,SSE,148,7.0,10.0,50,0.00,,---,0.00,VWS V15.00,2014-01-12 11:51:00,
2014-01-12 05:52:00,42.6,25.3,29.58,SE,140,7.0,10.0,50,0.00,,---,0.00,VWS V15.00,2014-01-12 11:52:00,
2014-01-12 05:53:00,42.8,25.0,29.58,SE,144,7.0,10.0,49,0.00,,---,0.00,VWS V15.00,2014-01-12 11:53:00,
2014-01-12 05:56:00,42.8,25.5,29.58,SE,131,6.0,10.0,50,0.00,,---,0.00,VWS V15.00,2014-01-12 11:56:00,
2014-01-12 05:57:00,42.8,25.5,29.58,SE,124,2.0,10.0,50,0.00,,---,0.00,VWS V15.00,2014-01-12 11:57:00,
2014-01-12 05:58:00,42.6,25.3,29.58,ESE,117,5.0,10.0,50,0.00,,---,0.00,VWS V15.00,2014-01-12 11:58:00,
2014-01-12 06:00:00,42.3,25.5,29.57,SE,135,5.0,10.0,51,0.00,,---,0.00,VWS V15.00,2014-01-12 12:00:00,
2014-01-12 06:01:00,42.3,25.5,29.57,SE,138,3.0,4.0,51,0.00,,---,0.00,VWS V15.00,2014-01-12 12:01:00,
2014-01-12 06:02:00,42.2,25.4,29.57,ESE,117,2.0,4.0,51,0.00,,---,0.00,VWS V15.00,2014-01-12 12:02:00,
2014-01-12 06:03:00,42.1,25.3,29.57,SSE,147,2.0,6.0,51,0.00,,---,0.00,VWS V15.00,2014-01-12 12:03:00,
2014-01-12 06:06:00,41.9,25.1,29.57,SE,134,4.0,6.0,51,0.00,,---,0.00,VWS V15.00,2014-01-12 12:06:00,
2014-01-12 06:07:00,41.9,25.6,29.57,SSE,154,9.0,9.0,52,0.00,,---,0.00,VWS V15.00,2014-01-12 12:07:00,
2014-01-12 06:08:00,42.1,25.3,29.57,SE,133,5.0,9.0,51,0.00,,---,0.00,VWS V15.00,2014-01-12 12:08:00,
2014-01-12 06:10:00,42.3,25.5,29.57,SE,135,4.0,10.0,51,0.00,,---,0.00,VWS V15.00,2014-01-12 12:10:00,
2014-01-12 06:11:00,42.3,25.5,29.57,SSE,149,1.0,6.0,51,0.00,,---,0.00,VWS V15.00,2014-01-12 12:11:00,
2014-01-12 06:12:00,42.3,25.5,29.57,SSE,157,5.0,6.0,51,0.00,,---,0.00,VWS V15.00,2014-01-12 12:12:00,
2014-01-12 06:13:00,42.5,25.7,29.57,SSW,204,5.0,9.0,51,0.00,,---,0.00,VWS V15.00,2014-01-12 12:13:00,
2014-01-12 06:16:00,43.1,25.3,29.57,SSW,194,3.0,9.0,49,0.00,,---,0.00,VWS V15.00,2014-01-12 12:16:00,
2014-01-12 06:17:00,43.5,25.6,29.57,SSE,148,3.0,9.0,49,0.00,,---,0.00,VWS V15.00,2014-01-12 12:17:00,
2014-01-12 06:18:00,43.8,25.4,29.57,SSW,196,9.0,11.0,48,0.00,,---,0.00,VWS V15.00,2014-01-12 12:18:00,
2014-01-12 06:20:00,44.1,25.7,29.57,SSE,158,4.0,12.0,48,0.00,,---,0.00,VWS V15.00,2014-01-12 12:20:00,
2014-01-12 06:21:00,44.3,25.4,29.57,SSW,194,9.0,11.0,47,0.00,,---,0.00,VWS V15.00,2014-01-12 12:21:00,
2014-01-12 06:22:00,44.6,25.6,29.57,South,172,5.0,13.0,47,0.00,,---,0.00,VWS V15.00,2014-01-12 12:22:00,
2014-01-12 06:23:00,44.6,25.6,29.57,South,174,4.0,13.0,47,0.00,,---,0.00,VWS V15.00,2014-01-12 12:23:00,
2014-01-12 06:24:00,44.6,25.6,29.57,SSW,205,9.0,13.0,47,0.00,,---,0.00,VWS V15.00,2014-01-12 12:24:00,
2014-01-12 06:26:00,44.8,25.8,29.57,SSW,200,3.0,13.0,47,0.00,,---,0.00,VWS V15.00,2014-01-12 12:26:00,
2014-01-12 06:27:00,44.8,25.8,29.57,SW,227,3.0,13.0,47,0.00,,---,0.00,VWS V15.00,2014-01-12 12:27:00,
2014-01-12 06:28:00,44.8,25.8,29.57,SW,220,3.0,13.0,47,0.00,,---,0.00,VWS V15.00,2014-01-12 12:28:00,
2014-01-12 06:29:00,44.8,25.8,29.57,SW,215,5.0,13.0,47,0.00,,---,0.00,VWS V15.00,2014-01-12 12:29:00,
2014-01-12 06:30:00,44.8,25.8,29.58,SSW,202,5.0,13.0,47,0.00,,---,0.00,VWS V15.00,2014-01-12 12:30:00,
2014-01-12 06:31:00,44.8,25.8,29.58,South,187,4.0,10.0,47,0.00,,---,0.00,VWS V15.00,2014-01-12 12:31:00,
2014-01-12 06:32:00,44.8,25.8,29.58,SW,224,2.0,10.0,47,0.00,,---,0.00,VWS V15.00,2014-01-12 12:32:00,
2014-01-12 06:33:00,44.8,25.8,29.58,SW,224,1.0,10.0,47,0.00,,---,0.00,VWS V15.00,2014-01-12 12:33:00,
2014-01-12 06:34:00,44.8,25.8,29.58,SW,229,0.0,10.0,47,0.00,,---,0.00,VWS V15.00,2014-01-12 12:34:00,
2014-01-12 06:36:00,44.8,25.3,29.58,SW,217,2.0,10.0,46,0.00,,---,0.00,VWS V15.00,2014-01-12 12:36:00,
2014-01-12 06:37:00,44.8,25.3,29.58,SW,217,0.0,10.0,46,0.00,,---,0.00,VWS V15.00,2014-01-12 12:37:00,
2014-01-12 06:38:00,44.8,25.3,29.58,SW,217,0.0,10.0,46,0.00,,---,0.00,VWS V15.00,2014-01-12 12:38:00,
2014-01-12 06:39:00,44.8,25.3,29.58,SW,217,0.0,10.0,46,0.00,,---,0.00,VWS V15.00,2014-01-12 12:39:00,
2014-01-12 06:40:00,44.8,25.3,29.58,SW,225,2.0,10.0,46,0.00,,---,0.00,VWS V15.00,2014-01-12 12:40:00,
2014-01-12 06:41:00,44.9,25.4,29.58,SW,217,0.0,2.0,46,0.00,,---,0.00,VWS V15.00,2014-01-12 12:41:00,
2014-01-12 06:42:00,45.1,25.6,29.58,SW,215,4.0,6.0,46,0.00,,---,0.00,VWS V15.00,2014-01-12 12:42:00,
2014-01-12 06:43:00,45.1,25.0,29.58,WSW,240,4.0,6.0,45,0.00,,---,0.00,VWS V15.00,2014-01-12 12:43:00,
2014-01-12 06:44:00,45.2,25.1,29.58,WSW,239,0.0,6.0,45,0.00,,---,0.00,VWS V15.00,2014-01-12 12:44:00,
2014-01-12 06:46:00,45.4,25.3,29.57,WSW,239,2.0,6.0,45,0.00,,---,0.00,VWS V15.00,2014-01-12 12:46:00,
2014-01-12 06:47:00,45.4,25.3,29.57,SW,231,5.0,6.0,45,0.00,,---,0.00,VWS V15.00,2014-01-12 12:47:00,
2014-01-12 06:48:00,45.5,25.4,29.57,SSW,213,7.0,7.0,45,0.00,,---,0.00,VWS V15.00,2014-01-12 12:48:00,
2014-01-12 06:49:00,45.5,25.4,29.57,SSW,213,4.0,8.0,45,0.00,,---,0.00,VWS V15.00,2014-01-12 12:49:00,
2014-01-12 06:50:00,45.5,25.4,29.57,WSW,248,3.0,11.0,45,0.00,,---,0.00,VWS V15.00,2014-01-12 12:50:00,
2014-01-12 06:51:00,45.7,25.6,29.57,SW,215,11.0,14.0,45,0.00,,---,0.00,VWS V15.00,2014-01-12 12:51:00,
2014-01-12 06:52:00,45.7,25.0,29.57,SSW,206,10.0,14.0,44,0.00,,---,0.00,VWS V15.00,2014-01-12 12:52:00,
2014-01-12 06:53:00,45.7,25.6,29.57,SSW,200,12.0,14.0,45,0.00,,---,0.00,VWS V15.00,2014-01-12 12:53:00,
2014-01-12 06:54:00,45.8,25.7,29.57,SSW,209,12.0,16.0,45,0.00,,---,0.00,VWS V15.00,2014-01-12 12:54:00,
2014-01-12 06:56:00,45.7,25.6,29.57,SSW,204,7.0,16.0,45,0.00,,---,0.00,VWS V15.00,2014-01-12 12:56:00,
2014-01-12 06:58:00,45.5,25.4,29.57,South,188,6.0,16.0,45,0.00,,---,0.00,VWS V15.00,2014-01-12 12:58:00,
2014-01-12 06:59:00,45.4,25.3,29.56,South,188,6.0,16.0,45,0.00,,---,0.00,VWS V15.00,2014-01-12 12:59:00,
2014-01-12 07:00:00,45.4,25.3,29.56,SSW,202,9.0,16.0,45,0.00,,---,0.00,VWS V15.00,2014-01-12 13:00:00,
2014-01-12 07:01:00,45.4,25.3,29.56,SSW,205,7.0,13.0,45,0.00,,---,0.00,VWS V15.00,2014-01-12 13:01:00,
2014-01-12 07:03:00,45.4,25.3,29.56,SSW,207,11.0,13.0,45,0.00,,---,0.00,VWS V15.00,2014-01-12 13:03:00,
2014-01-12 07:04:00,45.4,25.3,29.56,South,187,8.0,13.0,45,0.00,,---,0.00,VWS V15.00,2014-01-12 13:04:00,
2014-01-12 07:05:00,45.4,25.3,29.56,SW,221,6.0,13.0,45,0.00,,---,0.00,VWS V15.00,2014-01-12 13:05:00,
2014-01-12 07:06:00,45.1,25.6,29.56,SSW,200,8.0,13.0,46,0.00,,---,0.00,VWS V15.00,2014-01-12 13:06:00,
2014-01-12 07:08:00,44.9,25.4,29.56,SSW,207,12.0,13.0,46,0.00,,---,0.00,VWS V15.00,2014-01-12 13:08:00,
2014-01-12 07:09:00,44.9,25.4,29.56,SSW,209,10.0,13.0,46,0.00,,---,0.00,VWS V15.00,2014-01-12 13:09:00,
2014-01-12 07:10:00,44.9,25.4,29.56,SSW,211,6.0,13.0,46,0.00,,---,0.00,VWS V15.00,2014-01-12 13:10:00,
2014-01-12 07:12:00,44.6,25.6,29.56,SSW,212,8.0,10.0,47,0.00,,---,0.00,VWS V15.00,2014-01-12 13:12:00,
2014-01-12 07:13:00,44.6,25.6,29.56,SW,220,6.0,11.0,47,0.00,,---,0.00,VWS V15.00,2014-01-12 13:13:00,
2014-01-12 07:14:00,44.6,25.6,29.56,SSW,213,9.0,11.0,47,0.00,,---,0.00,VWS V15.00,2014-01-12 13:14:00,
2014-01-12 07:15:00,44.5,26.0,29.56,SSW,211,10.0,11.0,48,0.00,,---,0.00,VWS V15.00,2014-01-12 13:15:00,
2014-01-12 07:17:00,44.3,25.9,29.56,SW,219,7.0,11.0,48,0.00,,---,0.00,VWS V15.00,2014-01-12 13:17:00,
2014-01-12 07:18:00,44.3,25.9,29.56,SW,217,11.0,11.0,48,0.00,,---,0.00,VWS V15.00,2014-01-12 13:18:00,
2014-01-12 07:19:00,44.2,25.8,29.56,SW,214,9.0,11.0,48,0.00,,---,0.00,VWS V15.00,2014-01-12 13:19:00,
2014-01-12 07:20:00,44.2,25.8,29.56,SW,215,11.0,13.0,48,0.00,,---,0.00,VWS V15.00,2014-01-12 13:20:00,
2014-01-12 07:22:00,44.3,25.9,29.56,SW,217,6.0,12.0,48,0.00,,---,0.00,VWS V15.00,2014-01-12 13:22:00,
2014-01-12 07:24:00,44.2,25.8,29.56,SSW,209,11.0,12.0,48,0.00,,---,0.00,VWS V15.00,2014-01-12 13:24:00,
2014-01-12 07:25:00,44.1,26.7,29.56,SSW,207,13.0,13.0,50,0.00,,---,0.00,VWS V15.00,2014-01-12 13:25:00,
2014-01-12 07:27:00,44.1,25.7,29.56,SSW,212,11.0,14.0,48,0.00,,---,0.00,VWS V15.00,2014-01-12 13:27:00,
2014-01-12 07:29:00,44.1,25.7,29.56,SW,214,12.0,16.0,48,0.00,,---,0.00,VWS V15.00,2014-01-12 13:29:00,
2014-01-12 07:30:00,44.1,25.7,29.55,SSW,213,11.0,16.0,48,0.00,,---,0.00,VWS V15.00,2014-01-12 13:30:00,
2014-01-12 07:32:00,44.1,25.7,29.55,SSW,198,16.0,17.0,48,0.00,,---,0.00,VWS V15.00,2014-01-12 13:32:00,
2014-01-12 07:34:00,44.1,25.7,29.55,SSW,200,14.0,19.0,48,0.00,,---,0.00,VWS V15.00,2014-01-12 13:34:00,
2014-01-12 07:35:00,44.1,25.7,29.55,SSW,203,13.0,19.0,48,0.00,,---,0.00,VWS V15.00,2014-01-12 13:35:00,
2014-01-12 07:37:00,43.9,26.0,29.55,SSW,208,12.0,19.0,49,0.00,,---,0.00,VWS V15.00,2014-01-12 13:37:00,
2014-01-12 07:39:00,43.6,25.7,29.55,SSW,212,10.0,19.0,49,0.00,,---,0.00,VWS V15.00,2014-01-12 13:39:00,
2014-01-12 07:40:00,43.5,26.1,29.55,SSW,197,13.0,19.0,50,0.00,,---,0.00,VWS V15.00,2014-01-12 13:40:00,
2014-01-12 07:42:00,43.3,25.9,29.55,South,190,11.0,13.0,50,0.00,,---,0.00,VWS V15.00,2014-01-12 13:42:00,
2014-01-12 07:44:00,43.3,25.9,29.55,SSW,201,10.0,15.0,50,0.00,,---,0.00,VWS V15.00,2014-01-12 13:44:00,
2014-01-12 07:45:00,43.3,25.9,29.55,South,189,14.0,15.0,50,0.00,,---,0.00,VWS V15.00,2014-01-12 13:45:00,
2014-01-12 07:47:00,43.2,26.3,29.55,SSW,197,14.0,16.0,51,0.00,,---,0.00,VWS V15.00,2014-01-12 13:47:00,
2014-01-12 07:49:00,43.2,26.3,29.55,South,179,8.0,16.0,51,0.00,,---,0.00,VWS V15.00,2014-01-12 13:49:00,
2014-01-12 07:50:00,43.2,26.3,29.55,SSW,196,12.0,16.0,51,0.00,,---,0.00,VWS V15.00,2014-01-12 13:50:00,
2014-01-12 07:52:00,43.2,26.3,29.55,SSW,206,9.0,14.0,51,0.00,,---,0.00,VWS V15.00,2014-01-12 13:52:00,
2014-01-12 07:54:00,43.2,26.3,29.55,SSW,200,5.0,14.0,51,0.00,,---,0.00,VWS V15.00,2014-01-12 13:54:00,
2014-01-12 07:55:00,43.1,26.2,29.55,SSW,207,7.0,14.0,51,0.00,,---,0.00,VWS V15.00,2014-01-12 13:55:00,
2014-01-12 07:56:00,43.1,26.2,29.55,South,188,6.0,14.0,51,0.00,,---,0.00,VWS V15.00,2014-01-12 13:56:00,
2014-01-12 07:57:00,43.1,26.2,29.55,South,182,7.0,14.0,51,0.00,,---,0.00,VWS V15.00,2014-01-12 13:57:00,
2014-01-12 07:59:00,42.8,26.4,29.55,South,178,5.0,14.0,52,0.00,,---,0.00,VWS V15.00,2014-01-12 13:59:00,
2014-01-12 08:00:00,42.8,26.4,29.55,SSW,208,5.0,14.0,52,0.00,,---,0.00,VWS V15.00,2014-01-12 14:00:00,
2014-01-12 08:01:00,42.8,26.4,29.55,SSW,196,3.0,8.0,52,0.00,,---,0.00,VWS V15.00,2014-01-12 14:01:00,
2014-01-12 08:02:00,42.8,26.4,29.55,SSW,212,3.0,8.0,52,0.00,,---,0.00,VWS V15.00,2014-01-12 14:02:00,
2014-01-12 08:04:00,42.8,26.4,29.55,South,184,2.0,8.0,52,0.00,,---,0.00,VWS V15.00,2014-01-12 14:04:00,
2014-01-12 08:05:00,42.8,26.4,29.55,SSW,193,4.0,8.0,52,0.00,,---,0.00,VWS V15.00,2014-01-12 14:05:00,
2014-01-12 08:06:00,42.6,26.2,29.55,SSE,168,2.0,8.0,52,0.00,,---,0.00,VWS V15.00,2014-01-12 14:06:00,
2014-01-12 08:07:00,42.6,26.2,29.55,SSW,211,2.0,8.0,52,0.00,,---,0.00,VWS V15.00,2014-01-12 14:07:00,
2014-01-12 08:09:00,42.6,26.2,29.55,SW,221,2.0,8.0,52,0.00,,---,0.00,VWS V15.00,2014-01-12 14:09:00,
2014-01-12 08:10:00,42.6,26.2,29.55,SW,221,0.0,8.0,52,0.00,,---,0.00,VWS V15.00,2014-01-12 14:10:00,
2014-01-12 08:11:00,42.5,26.1,29.55,SW,221,0.0,2.0,52,0.00,,---,0.00,VWS V15.00,2014-01-12 14:11:00,
2014-01-12 08:12:00,42.5,26.6,29.55,West,259,0.0,4.0,53,0.00,,---,0.00,VWS V15.00,2014-01-12 14:12:00,
2014-01-12 08:15:00,42.5,26.6,29.56,SW,220,0.0,4.0,53,0.00,,---,0.00,VWS V15.00,2014-01-12 14:15:00,
2014-01-12 08:16:00,42.5,26.6,29.56,SW,220,2.0,4.0,53,0.00,,---,0.00,VWS V15.00,2014-01-12 14:16:00,
2014-01-12 08:17:00,42.5,26.6,29.56,SW,220,2.0,4.0,53,0.00,,---,0.00,VWS V15.00,2014-01-12 14:17:00,
2014-01-12 08:20:00,42.5,26.6,29.56,SW,220,2.0,4.0,53,0.00,,---,0.00,VWS V15.00,2014-01-12 14:20:00,
2014-01-12 08:21:00,42.5,26.6,29.56,SW,220,2.0,3.0,53,0.00,,---,0.00,VWS V15.00,2014-01-12 14:21:00,
2014-01-12 08:22:00,42.5,26.6,29.56,SW,220,4.0,4.0,53,0.00,,---,0.00,VWS V15.00,2014-01-12 14:22:00,
2014-01-12 08:25:00,42.6,26.7,29.56,SSW,202,5.0,6.0,53,0.00,,---,0.00,VWS V15.00,2014-01-12 14:25:00,
2014-01-12 08:26:00,42.6,26.2,29.56,South,186,4.0,6.0,52,0.00,,---,0.00,VWS V15.00,2014-01-12 14:26:00,
2014-01-12 08:27:00,42.6,26.2,29.56,SSW,204,3.0,6.0,52,0.00,,---,0.00,VWS V15.00,2014-01-12 14:27:00,
2014-01-12 08:30:00,42.8,26.4,29.57,SW,225,2.0,6.0,52,0.00,,---,0.00,VWS V15.00,2014-01-12 14:30:00,
2014-01-12 08:31:00,42.8,26.9,29.57,SW,227,2.0,4.0,53,0.00,,---,0.00,VWS V15.00,2014-01-12 14:31:00,
2014-01-12 08:32:00,42.8,26.9,29.57,SW,219,3.0,5.0,53,0.00,,---,0.00,VWS V15.00,2014-01-12 14:32:00,
2014-01-12 08:35:00,42.6,26.7,29.57,SW,219,2.0,5.0,53,0.00,,---,0.00,VWS V15.00,2014-01-12 14:35:00,
2014-01-12 08:36:00,42.5,26.6,29.57,SW,228,3.0,5.0,53,0.00,,---,0.00,VWS V15.00,2014-01-12 14:36:00,
2014-01-12 08:37:00,42.5,26.6,29.57,WSW,237,3.0,5.0,53,0.00,,---,0.00,VWS V15.00,2014-01-12 14:37:00,
2014-01-12 08:40:00,42.5,26.6,29.57,WSW,237,3.0,5.0,53,0.00,,---,0.00,VWS V15.00,2014-01-12 14:40:00,
2014-01-12 08:41:00,42.5,26.6,29.57,WSW,237,3.0,3.0,53,0.00,,---,0.00,VWS V15.00,2014-01-12 14:41:00,
2014-01-12 08:42:00,42.5,26.6,29.57,WSW,238,3.0,4.0,53,0.00,,---,0.00,VWS V15.00,2014-01-12 14:42:00,
2014-01-12 08:45:00,42.6,26.2,29.57,WSW,240,3.0,6.0,52,0.00,,---,0.00,VWS V15.00,2014-01-12 14:45:00,
2014-01-12 08:46:00,42.6,26.2,29.57,WSW,240,3.0,6.0,52,0.00,,---,0.00,VWS V15.00,2014-01-12 14:46:00,
2014-01-12 08:47:00,42.6,26.2,29.57,WSW,240,4.0,6.0,52,0.00,,---,0.00,VWS V15.00,2014-01-12 14:47:00,
2014-01-12 08:50:00,42.8,26.4,29.57,SW,233,5.0,6.0,52,0.00,,---,0.00,VWS V15.00,2014-01-12 14:50:00,
2014-01-12 08:51:00,42.8,26.4,29.57,WSW,242,5.0,5.0,52,0.00,,---,0.00,VWS V15.00,2014-01-12 14:51:00,
2014-01-12 08:52:00,42.9,26.5,29.57,WSW,242,5.0,6.0,52,0.00,,---,0.00,VWS V15.00,2014-01-12 14:52:00,
2014-01-12 08:55:00,43.1,26.2,29.57,SW,218,5.0,8.0,51,0.00,,---,0.00,VWS V15.00,2014-01-12 14:55:00,
2014-01-12 08:56:00,43.1,26.7,29.57,SW,227,5.0,8.0,52,0.00,,---,0.00,VWS V15.00,2014-01-12 14:56:00,
2014-01-12 08:57:00,43.1,26.7,29.57,SW,227,5.0,8.0,52,0.00,,---,0.00,VWS V15.00,2014-01-12 14:57:00,
2014-01-12 09:00:00,43.1,26.7,29.58,SW,236,8.0,9.0,52,0.00,,---,0.00,VWS V15.00,2014-01-12 15:00:00,
2014-01-12 09:01:00,43.1,26.7,29.58,SW,232,6.0,7.0,52,0.00,,---,0.00,VWS V15.00,2014-01-12 15:01:00,
2014-01-12 09:02:00,43.2,26.8,29.58,SW,233,6.0,7.0,52,0.00,,---,0.00,VWS V15.00,2014-01-12 15:02:00,
2014-01-12 09:03:00,43.2,26.8,29.58,SW,221,6.0,7.0,52,0.00,,---,0.00,VWS V15.00,2014-01-12 15:03:00,
2014-01-12 09:05:00,43.1,26.7,29.58,SW,227,10.0,13.0,52,0.00,,---,0.00,VWS V15.00,2014-01-12 15:05:00,
2014-01-12 09:06:00,43.2,26.8,29.58,SW,225,6.0,13.0,52,0.00,,---,0.00,VWS V15.00,2014-01-12 15:06:00,
2014-01-12 09:07:00,43.2,26.8,29.58,SW,221,6.0,13.0,52,0.00,,---,0.00,VWS V15.00,2014-01-12 15:07:00,
2014-01-12 09:08:00,43.2,26.8,29.58,SSW,213,9.0,13.0,52,0.00,,---,0.00,VWS V15.00,2014-01-12 15:08:00,
2014-01-12 09:10:00,43.2,26.8,29.58,SW,228,6.0,7.0,52,0.00,,---,0.00,VWS V15.00,2014-01-12 15:10:00,
2014-01-12 09:11:00,43.1,26.7,29.58,SW,225,8.0,10.0,52,0.00,,---,0.00,VWS V15.00,2014-01-12 15:11:00,
2014-01-12 09:12:00,43.1,26.7,29.58,SW,222,7.0,10.0,52,0.00,,---,0.00,VWS V15.00,2014-01-12 15:12:00,
2014-01-12 09:13:00,43.1,26.7,29.58,SW,229,7.0,10.0,52,0.00,,---,0.00,VWS V15.00,2014-01-12 15:13:00,
2014-01-12 09:15:00,43.1,26.7,29.58,SW,232,7.0,10.0,52,0.00,,---,0.00,VWS V15.00,2014-01-12 15:15:00,
2014-01-12 09:17:00,43.1,27.1,29.58,SW,229,6.0,10.0,53,0.00,,---,0.00,VWS V15.00,2014-01-12 15:17:00,
2014-01-12 09:18:00,43.1,27.1,29.58,SW,232,7.0,10.0,53,0.00,,---,0.00,VWS V15.00,2014-01-12 15:18:00,
2014-01-12 09:20:00,43.1,27.1,29.58,SSW,209,9.0,10.0,53,0.00,,---,0.00,VWS V15.00,2014-01-12 15:20:00,
2014-01-12 09:22:00,43.1,27.1,29.58,SW,223,6.0,10.0,53,0.00,,---,0.00,VWS V15.00,2014-01-12 15:22:00,
2014-01-12 09:23:00,43.1,27.1,29.58,SW,223,6.0,10.0,53,0.00,,---,0.00,VWS V15.00,2014-01-12 15:23:00,
2014-01-12 09:25:00,43.1,27.6,29.58,SW,215,9.0,10.0,54,0.00,,---,0.00,VWS V15.00,2014-01-12 15:25:00,
2014-01-12 09:26:00,43.1,27.6,29.58,SSW,209,9.0,11.0,54,0.00,,---,0.00,VWS V15.00,2014-01-12 15:26:00,
2014-01-12 09:27:00,43.1,27.1,29.58,SSW,212,10.0,12.0,53,0.00,,---,0.00,VWS V15.00,2014-01-12 15:27:00,
2014-01-12 09:28:00,43.1,25.7,29.58,SSW,211,10.0,12.0,50,0.00,,---,0.00,VWS V15.00,2014-01-12 15:28:00,
2014-01-12 09:30:00,43.2,27.7,29.57,SW,218,7.0,9.0,54,0.00,,---,0.00,VWS V15.00,2014-01-12 15:30:00,
2014-01-12 09:31:00,43.2,27.7,29.57,SW,225,8.0,10.0,54,0.00,,---,0.00,VWS V15.00,2014-01-12 15:31:00,
2014-01-12 09:32:00,43.1,27.6,29.57,SW,215,9.0,11.0,54,0.00,,---,0.00,VWS V15.00,2014-01-12 15:32:00,
2014-01-12 09:33:00,43.1,27.6,29.57,SSW,213,9.0,11.0,54,0.00,,---,0.00,VWS V15.00,2014-01-12 15:33:00,
2014-01-12 09:35:00,43.2,27.2,29.57,SSW,211,12.0,14.0,53,0.00,,---,0.00,VWS V15.00,2014-01-12 15:35:00,
2014-01-12 09:36:00,43.2,27.2,29.57,SSW,211,10.0,14.0,53,0.00,,---,0.00,VWS V15.00,2014-01-12 15:36:00,
2014-01-12 09:37:00,43.2,27.2,29.57,SW,221,7.0,14.0,53,0.00,,---,0.00,VWS V15.00,2014-01-12 15:37:00,
2014-01-12 09:38:00,43.3,27.8,29.57,SW,229,6.0,14.0,54,0.00,,---,0.00,VWS V15.00,2014-01-12 15:38:00,
2014-01-12 09:40:00,43.3,27.8,29.57,SW,214,10.0,11.0,54,0.00,,---,0.00,VWS V15.00,2014-01-12 15:40:00,
2014-01-12 09:41:00,43.3,27.3,29.57,SW,219,6.0,11.0,53,0.00,,---,0.00,VWS V15.00,2014-01-12 15:41:00,
2014-01-12 09:42:00,43.5,27.5,29.57,SW,222,6.0,11.0,53,0.00,,---,0.00,VWS V15.00,2014-01-12 15:42:00,
2014-01-12 09:43:00,43.5,27.5,29.57,SW,223,6.0,11.0,53,0.00,,---,0.00,VWS V15.00,2014-01-12 15:43:00,
2014-01-12 09:45:00,43.6,27.6,29.57,SW,230,7.0,11.0,53,0.00,,---,0.00,VWS V15.00,2014-01-12 15:45:00,
2014-01-12 09:46:00,43.6,27.6,29.57,SW,215,7.0,11.0,53,0.00,,---,0.00,VWS V15.00,2014-01-12 15:46:00,
2014-01-12 09:47:00,43.8,27.8,29.57,SW,221,6.0,11.0,53,0.00,,---,0.00,VWS V15.00,2014-01-12 15:47:00,
2014-01-12 09:48:00,43.8,27.8,29.57,SW,225,6.0,11.0,53,0.00,,---,0.00,VWS V15.00,2014-01-12 15:48:00,
2014-01-12 09:50:00,43.8,27.8,29.57,SW,227,7.0,11.0,53,0.00,,---,0.00,VWS V15.00,2014-01-12 15:50:00,
2014-01-12 09:51:00,43.8,27.8,29.57,SSW,213,9.0,11.0,53,0.00,,---,0.00,VWS V15.00,2014-01-12 15:51:00,
2014-01-12 09:52:00,43.8,27.8,29.57,SW,223,7.0,11.0,53,0.00,,---,0.00,VWS V15.00,2014-01-12 15:52:00,
2014-01-12 09:53:00,43.8,27.8,29.57,SW,216,6.0,11.0,53,0.00,,---,0.00,VWS V15.00,2014-01-12 15:53:00,
2014-01-12 09:55:00,43.8,27.8,29.57,SW,225,5.0,11.0,53,0.00,,---,0.00,VWS V15.00,2014-01-12 15:55:00,
2014-01-12 09:56:00,43.8,27.8,29.57,SW,232,5.0,11.0,53,0.00,,---,0.00,VWS V15.00,2014-01-12 15:56:00,
2014-01-12 09:57:00,43.9,27.9,29.57,SW,232,4.0,11.0,53,0.00,,---,0.00,VWS V15.00,2014-01-12 15:57:00,
2014-01-12 09:58:00,43.9,27.4,29.57,SSW,213,9.0,11.0,52,0.00,,---,0.00,VWS V15.00,2014-01-12 15:58:00,
2014-01-12 10:00:00,44.1,27.6,29.57,SW,216,10.0,10.0,52,0.00,,---,0.00,VWS V15.00,2014-01-12 16:00:00,
2014-01-12 10:01:00,44.1,27.6,29.57,SSW,211,12.0,14.0,52,0.00,,---,0.00,VWS V15.00,2014-01-12 16:01:00,
2014-01-12 10:02:00,44.1,27.6,29.57,SSW,213,9.0,14.0,52,0.00,,---,0.00,VWS V15.00,2014-01-12 16:02:00,
2014-01-12 10:03:00,44.2,27.7,29.57,SW,217,10.0,14.0,52,0.00,,---,0.00,VWS V15.00,2014-01-12 16:03:00,
2014-01-12 10:04:00,44.2,27.2,29.57,SW,221,6.0,14.0,51,0.00,,---,0.00,VWS V15.00,2014-01-12 16:04:00,
2014-01-12 10:06:00,44.2,27.7,29.57,SW,232,4.0,14.0,52,0.00,,---,0.00,VWS V15.00,2014-01-12 16:06:00,
2014-01-12 10:07:00,44.2,27.7,29.57,SW,218,6.0,14.0,52,0.00,,---,0.00,VWS V15.00,2014-01-12 16:07:00,
2014-01-12 10:08:00,44.2,27.7,29.57,SW,217,5.0,14.0,52,0.00,,---,0.00,VWS V15.00,2014-01-12 16:08:00,
2014-01-12 10:09:00,44.2,27.7,29.57,SW,219,4.0,14.0,52,0.00,,---,0.00,VWS V15.00,2014-01-12 16:09:00,
2014-01-12 10:10:00,44.2,27.7,29.57,SW,225,7.0,14.0,52,0.00,,---,0.00,VWS V15.00,2014-01-12 16:10:00,
2014-01-12 10:11:00,44.2,27.7,29.57,SW,223,6.0,6.0,52,0.00,,---,0.00,VWS V15.00,2014-01-12 16:11:00,
2014-01-12 10:12:00,44.2,27.7,29.57,SW,225,4.0,7.0,52,0.00,,---,0.00,VWS V15.00,2014-01-12 16:12:00,
2014-01-12 10:13:00,44.2,27.7,29.57,SW,225,4.0,7.0,52,0.00,,---,0.00,VWS V15.00,2014-01-12 16:13:00,
2014-01-12 10:14:00,44.2,27.7,29.57,SW,217,5.0,7.0,52,0.00,,---,0.00,VWS V15.00,2014-01-12 16:14:00,
2014-01-12 10:17:00,44.3,27.8,29.57,SW,221,6.0,9.0,52,0.00,,---,0.00,VWS V15.00,2014-01-12 16:17:00,
2014-01-12 10:18:00,44.3,28.3,29.57,SW,216,5.0,9.0,53,0.00,,---,0.00,VWS V15.00,2014-01-12 16:18:00,
2014-01-12 10:19:00,44.3,28.3,29.57,SW,227,5.0,9.0,53,0.00,,---,0.00,VWS V15.00,2014-01-12 16:19:00,
2014-01-12 10:20:00,44.3,28.3,29.57,SW,225,5.0,9.0,53,0.00,,---,0.00,VWS V15.00,2014-01-12 16:20:00,
2014-01-12 10:22:00,44.2,28.2,29.57,SW,216,4.0,6.0,53,0.00,,---,0.00,VWS V15.00,2014-01-12 16:22:00,
2014-01-12 10:23:00,44.2,28.2,29.57,SW,215,6.0,6.0,53,0.00,,---,0.00,VWS V15.00,2014-01-12 16:23:00,
2014-01-12 10:24:00,44.3,28.3,29.57,SW,215,5.0,6.0,53,0.00,,---,0.00,VWS V15.00,2014-01-12 16:24:00,
2014-01-12 10:27:00,44.3,28.7,29.57,SSW,209,6.0,6.0,54,0.00,,---,0.00,VWS V15.00,2014-01-12 16:27:00,
2014-01-12 10:28:00,44.3,28.7,29.57,SSW,206,8.0,8.0,54,0.00,,---,0.00,VWS V15.00,2014-01-12 16:28:00,
2014-01-12 10:29:00,44.3,28.7,29.55,SW,215,10.0,10.0,54,0.00,,---,0.00,VWS V15.00,2014-01-12 16:29:00,
2014-01-12 10:30:00,44.3,28.3,29.55,SSW,202,6.0,12.0,53,0.00,,---,0.00,VWS V15.00,2014-01-12 16:30:00,
2014-01-12 10:32:00,44.5,28.5,29.55,SW,215,9.0,11.0,53,0.00,,---,0.00,VWS V15.00,2014-01-12 16:32:00,
2014-01-12 10:33:00,44.5,28.5,29.55,SSW,211,9.0,11.0,53,0.00,,---,0.00,VWS V15.00,2014-01-12 16:33:00,
2014-01-12 10:34:00,44.6,28.5,29.55,SSW,209,9.0,11.0,53,0.00,,---,0.00,VWS V15.00,2014-01-12 16:34:00,
2014-01-12 10:37:00,44.9,28.4,29.55,SW,215,11.0,11.0,52,0.00,,---,0.00,VWS V15.00,2014-01-12 16:37:00,
2014-01-12 10:38:00,44.9,28.4,29.55,SW,219,7.0,11.0,52,0.00,,---,0.00,VWS V15.00,2014-01-12 16:38:00,
2014-01-12 10:39:00,45.1,29.0,29.55,SW,215,10.0,11.0,53,0.00,,---,0.00,VWS V15.00,2014-01-12 16:39:00,
2014-01-12 10:40:00,45.1,29.0,29.55,SW,225,8.0,11.0,53,0.00,,---,0.00,VWS V15.00,2014-01-12 16:40:00,
2014-01-12 10:42:00,45.2,28.6,29.55,SW,220,11.0,12.0,52,0.00,,---,0.00,VWS V15.00,2014-01-12 16:42:00,
2014-01-12 10:43:00,45.2,28.6,29.55,SW,221,7.0,12.0,52,0.00,,---,0.00,VWS V15.00,2014-01-12 16:43:00,
2014-01-12 10:44:00,45.4,28.8,29.55,SW,221,9.0,12.0,52,0.00,,---,0.00,VWS V15.00,2014-01-12 16:44:00,
2014-01-12 10:47:00,45.7,28.6,29.55,SSW,205,11.0,15.0,51,0.00,,---,0.00,VWS V15.00,2014-01-12 16:47:00,
2014-01-12 10:48:00,45.7,28.6,29.55,SSW,212,12.0,15.0,51,0.00,,---,0.00,VWS V15.00,2014-01-12 16:48:00,
2014-01-12 10:49:00,45.7,29.1,29.55,SSW,207,10.0,15.0,52,0.00,,---,0.00,VWS V15.00,2014-01-12 16:49:00,
2014-01-12 10:50:00,45.8,29.2,29.55,SSW,211,9.0,15.0,52,0.00,,---,0.00,VWS V15.00,2014-01-12 16:50:00,
2014-01-12 10:52:00,46.0,29.4,29.55,SW,220,7.0,11.0,52,0.00,,---,0.00,VWS V15.00,2014-01-12 16:52:00,
2014-01-12 10:53:00,46.0,29.4,29.55,SSW,213,8.0,11.0,52,0.00,,---,0.00,VWS V15.00,2014-01-12 16:53:00,
2014-01-12 10:54:00,46.0,29.4,29.55,SW,215,10.0,11.0,52,0.00,,---,0.00,VWS V15.00,2014-01-12 16:54:00,
2014-01-12 10:55:00,46.1,29.5,29.55,SW,221,6.0,11.0,52,0.00,,---,0.00,VWS V15.00,2014-01-12 16:55:00,
2014-01-12 10:57:00,46.4,29.3,29.55,SW,223,5.0,12.0,51,0.00,,---,0.00,VWS V15.00,2014-01-12 16:57:00,
2014-01-12 10:58:00,46.4,29.3,29.55,SW,220,5.0,12.0,51,0.00,,---,0.00,VWS V15.00,2014-01-12 16:58:00,
2014-01-12 10:59:00,46.4,29.3,29.55,SW,218,6.0,12.0,51,0.00,,---,0.00,VWS V15.00,2014-01-12 16:59:00,
2014-01-12 11:00:00,46.5,29.4,29.53,SW,230,6.0,12.0,51,0.00,,---,0.00,VWS V15.00,2014-01-12 17:00:00,
2014-01-12 11:01:00,46.5,29.4,29.53,SW,215,7.0,11.0,51,0.00,,---,0.00,VWS V15.00,2014-01-12 17:01:00,
2014-01-12 11:02:00,46.7,29.1,29.53,SW,221,10.0,14.0,50,0.00,,---,0.00,VWS V15.00,2014-01-12 17:02:00,
2014-01-12 11:03:00,46.7,29.1,29.53,SSW,213,11.0,14.0,50,0.00,,---,0.00,VWS V15.00,2014-01-12 17:03:00,
2014-01-12 11:04:00,46.8,29.6,29.53,SSW,213,12.0,14.0,51,0.00,,---,0.00,VWS V15.00,2014-01-12 17:04:00,
2014-01-12 11:05:00,46.8,29.2,29.53,SW,219,10.0,14.0,50,0.00,,---,0.00,VWS V15.00,2014-01-12 17:05:00,
2014-01-12 11:06:00,47.0,29.3,29.53,SSW,213,11.0,14.0,50,0.00,,---,0.00,VWS V15.00,2014-01-12 17:06:00,
2014-01-12 11:07:00,47.0,29.3,29.53,SW,217,11.0,14.0,50,0.00,,---,0.00,VWS V15.00,2014-01-12 17:07:00,
2014-01-12 11:08:00,47.0,29.3,29.53,SSW,209,11.0,14.0,50,0.00,,---,0.00,VWS V15.00,2014-01-12 17:08:00,
2014-01-12 11:09:00,47.0,29.3,29.53,SW,227,9.0,14.0,50,0.00,,---,0.00,VWS V15.00,2014-01-12 17:09:00,
2014-01-12 11:10:00,47.0,29.3,29.53,SSW,212,15.0,16.0,50,0.00,,---,0.00,VWS V15.00,2014-01-12 17:10:00,
2014-01-12 11:11:00,47.1,28.9,29.53,SW,222,11.0,16.0,49,0.00,,---,0.00,VWS V15.00,2014-01-12 17:11:00,
2014-01-12 11:12:00,47.1,28.9,29.53,SW,219,9.0,16.0,49,0.00,,---,0.00,VWS V15.00,2014-01-12 17:12:00,
2014-01-12 11:13:00,47.1,29.4,29.53,SW,218,10.0,16.0,50,0.00,,---,0.00,VWS V15.00,2014-01-12 17:13:00,
2014-01-12 11:14:00,47.0,29.3,29.53,SW,227,11.0,16.0,50,0.00,,---,0.00,VWS V15.00,2014-01-12 17:14:00,
2014-01-12 11:15:00,47.1,29.4,29.52,SW,217,14.0,16.0,50,0.00,,---,0.00,VWS V15.00,2014-01-12 17:15:00,
2014-01-12 11:16:00,47.1,28.9,29.52,SW,220,12.0,16.0,49,0.00,,---,0.00,VWS V15.00,2014-01-12 17:16:00,
2014-01-12 11:17:00,47.0,29.8,29.52,SW,225,9.0,16.0,51,0.00,,---,0.00,VWS V15.00,2014-01-12 17:17:00,
2014-01-12 11:18:00,47.0,30.3,29.52,SSW,211,12.0,16.0,52,0.00,,---,0.00,VWS V15.00,2014-01-12 17:18:00,
2014-01-12 11:19:00,47.0,29.3,29.52,SSW,213,15.0,17.0,50,0.00,,---,0.00,VWS V15.00,2014-01-12 17:19:00,
2014-01-12 11:20:00,47.0,29.3,29.52,SW,227,9.0,11.0,50,0.00,,---,0.00,VWS V15.00,2014-01-12 17:20:00,
2014-01-12 11:21:00,47.1,29.4,29.52,SW,217,15.0,15.0,50,0.00,,---,0.00,VWS V15.00,2014-01-12 17:21:00,
2014-01-12 11:22:00,47.3,29.6,29.52,SW,217,14.0,15.0,50,0.00,,---,0.00,VWS V15.00,2014-01-12 17:22:00,
2014-01-12 11:23:00,47.3,28.6,29.52,SW,215,13.0,15.0,48,0.00,,---,0.00,VWS V15.00,2014-01-12 17:23:00,
2014-01-12 11:24:00,47.4,28.7,29.52,SW,230,12.0,15.0,48,0.00,,---,0.00,VWS V15.00,2014-01-12 17:24:00,
2014-01-12 11:25:00,47.6,28.9,29.52,SW,219,11.0,15.0,48,0.00,,---,0.00,VWS V15.00,2014-01-12 17:25:00,
2014-01-12 11:26:00,47.6,29.4,29.52,SW,227,9.0,15.0,49,0.00,,---,0.00,VWS V15.00,2014-01-12 17:26:00,
2014-01-12 11:27:00,47.7,29.5,29.52,SSW,209,11.0,15.0,49,0.00,,---,0.00,VWS V15.00,2014-01-12 17:27:00,
2014-01-12 11:28:00,47.7,30.0,29.52,SW,225,11.0,15.0,50,0.00,,---,0.00,VWS V15.00,2014-01-12 17:28:00,
2014-01-12 11:29:00,47.6,29.4,29.52,SW,220,13.0,15.0,49,0.00,,---,0.00,VWS V15.00,2014-01-12 17:29:00,
2014-01-12 11:30:00,47.6,29.4,29.52,SW,215,13.0,15.0,49,0.00,,---,0.00,VWS V15.00,2014-01-12 17:30:00,
2014-01-12 11:31:00,47.7,29.5,29.52,SW,217,13.0,17.0,49,0.00,,---,0.00,VWS V15.00,2014-01-12 17:31:00,
2014-01-12 11:33:00,47.7,30.0,29.52,SW,217,12.0,17.0,50,0.00,,---,0.00,VWS V15.00,2014-01-12 17:33:00,
2014-01-12 11:34:00,47.6,30.4,29.52,SW,229,11.0,17.0,51,0.00,,---,0.00,VWS V15.00,2014-01-12 17:34:00,
2014-01-12 11:35:00,47.6,30.4,29.52,SW,229,12.0,17.0,51,0.00,,---,0.00,VWS V15.00,2014-01-12 17:35:00,
2014-01-12 11:36:00,47.7,29.5,29.52,SW,226,9.0,17.0,49,0.00,,---,0.00,VWS V15.00,2014-01-12 17:36:00,
2014-01-12 11:38:00,47.9,30.2,29.52,SW,225,10.0,17.0,50,0.00,,---,0.00,VWS V15.00,2014-01-12 17:38:00,
2014-01-12 11:40:00,48.0,29.3,29.52,SW,224,11.0,17.0,48,0.00,,---,0.00,VWS V15.00,2014-01-12 17:40:00,
2014-01-12 11:41:00,48.0,28.2,29.52,SW,226,12.0,18.0,46,0.00,,---,0.00,VWS V15.00,2014-01-12 17:41:00,
2014-01-12 11:43:00,48.2,30.0,29.52,SW,215,12.0,18.0,49,0.00,,---,0.00,VWS V15.00,2014-01-12 17:43:00,
2014-01-12 11:44:00,48.2,30.0,29.52,SW,233,13.0,18.0,49,0.00,,---,0.00,VWS V15.00,2014-01-12 17:44:00,
2014-01-12 11:45:00,48.2,30.0,29.51,SW,217,13.0,18.0,49,0.00,,---,0.00,VWS V15.00,2014-01-12 17:45:00,
2014-01-12 11:47:00,48.3,30.0,29.51,SW,229,10.0,18.0,49,0.00,,---,0.00,VWS V15.00,2014-01-12 17:47:00,
2014-01-12 11:48:00,48.3,30.0,29.51,SW,230,10.0,18.0,49,0.00,,---,0.00,VWS V15.00,2014-01-12 17:48:00,
2014-01-12 11:49:00,48.3,30.0,29.51,SW,227,11.0,18.0,49,0.00,,---,0.00,VWS V15.00,2014-01-12 17:49:00,
2014-01-12 11:50:00,48.5,29.7,29.51,SW,227,12.0,18.0,48,0.00,,---,0.00,VWS V15.00,2014-01-12 17:50:00,
2014-01-12 11:52:00,48.6,29.8,29.51,SW,230,13.0,14.0,48,0.00,,---,0.00,VWS V15.00,2014-01-12 17:52:00,
2014-01-12 11:53:00,48.8,30.0,29.51,SW,223,12.0,16.0,48,0.00,,---,0.00,VWS V15.00,2014-01-12 17:53:00,
2014-01-12 11:54:00,48.8,30.0,29.51,SW,229,11.0,16.0,48,0.00,,---,0.00,VWS V15.00,2014-01-12 17:54:00,
2014-01-12 11:55:00,48.9,30.1,29.51,SW,224,13.0,16.0,48,0.00,,---,0.00,VWS V15.00,2014-01-12 17:55:00,
2014-01-12 11:57:00,48.9,29.6,29.51,SW,217,13.0,16.0,47,0.00,,---,0.00,VWS V15.00,2014-01-12 17:57:00,
2014-01-12 11:58:00,49.1,29.8,29.51,SW,222,11.0,16.0,47,0.00,,---,0.00,VWS V15.00,2014-01-12 17:58:00,
2014-01-12 11:59:00,49.1,30.3,29.51,SW,218,11.0,16.0,48,0.00,,---,0.00,VWS V15.00,2014-01-12 17:59:00,
2014-01-12 12:00:00,49.1,30.8,29.50,SW,224,8.0,16.0,49,0.00,,---,0.00,VWS V15.00,2014-01-12 18:00:00,
2014-01-12 12:02:00,49.1,30.3,29.50,SW,221,11.0,12.0,48,0.00,,---,0.00,VWS V15.00,2014-01-12 18:02:00,
2014-01-12 12:03:00,49.2,30.4,29.50,SW,226,13.0,17.0,48,0.00,,---,0.00,VWS V15.00,2014-01-12 18:03:00,
2014-01-12 12:04:00,49.2,30.4,29.50,SW,232,12.0,17.0,48,0.00,,---,0.00,VWS V15.00,2014-01-12 18:04:00,
2014-01-12 12:05:00,49.2,30.4,29.50,SW,235,16.0,17.0,48,0.00,,---,0.00,VWS V15.00,2014-01-12 18:05:00,
2014-01-12 12:07:00,49.5,29.6,29.50,SW,236,12.0,17.0,46,0.00,,---,0.00,VWS V15.00,2014-01-12 18:07:00,
2014-01-12 12:08:00,49.8,30.4,29.50,WSW,240,9.0,17.0,47,0.00,,---,0.00,VWS V15.00,2014-01-12 18:08:00,
2014-01-12 12:09:00,49.8,30.4,29.50,WSW,242,11.0,17.0,47,0.00,,---,0.00,VWS V15.00,2014-01-12 18:09:00,
2014-01-12 12:10:00,49.8,30.4,29.50,WSW,242,8.0,17.0,47,0.00,,---,0.00,VWS V15.00,2014-01-12 18:10:00,
2014-01-12 12:12:00,49.9,31.0,29.50,SW,229,7.0,12.0,48,0.00,,---,0.00,VWS V15.00,2014-01-12 18:12:00,
2014-01-12 12:13:00,50.1,31.2,29.50,SW,225,11.0,14.0,48,0.00,,---,0.00,VWS V15.00,2014-01-12 18:13:00,
2014-01-12 12:14:00,50.1,31.2,29.50,SW,228,10.0,14.0,48,0.00,,---,0.00,VWS V15.00,2014-01-12 18:14:00,
2014-01-12 12:15:00,50.1,31.2,29.49,SW,227,10.0,14.0,48,0.00,,---,0.00,VWS V15.00,2014-01-12 18:15:00,
2014-01-12 12:17:00,50.2,30.2,29.49,SW,236,11.0,14.0,46,0.00,,---,0.00,VWS V15.00,2014-01-12 18:17:00,
2014-01-12 12:19:00,50.4,30.4,29.49,WSW,238,10.0,14.0,46,0.00,,---,0.00,VWS V15.00,2014-01-12 18:19:00,
2014-01-12 12:20:00,50.4,30.4,29.49,SW,227,9.0,10.0,46,0.00,,---,0.00,VWS V15.00,2014-01-12 18:20:00,
2014-01-12 12:21:00,50.4,30.4,29.49,SW,227,9.0,10.0,46,0.00,,---,0.00,VWS V15.00,2014-01-12 18:21:00,
2014-01-12 12:23:00,50.4,29.9,29.49,WSW,240,8.0,11.0,45,0.00,,---,0.00,VWS V15.00,2014-01-12 18:23:00,
2014-01-12 12:24:00,50.4,31.0,29.49,WSW,244,10.0,11.0,47,0.00,,---,0.00,VWS V15.00,2014-01-12 18:24:00,
2014-01-12 12:25:00,50.4,31.0,29.49,WSW,252,10.0,12.0,47,0.00,,---,0.00,VWS V15.00,2014-01-12 18:25:00,
2014-01-12 12:26:00,50.4,31.0,29.49,WSW,255,11.0,12.0,47,0.00,,---,0.00,VWS V15.00,2014-01-12 18:26:00,
2014-01-12 12:27:00,50.4,30.4,29.49,WSW,248,9.0,13.0,46,0.00,,---,0.00,VWS V15.00,2014-01-12 18:27:00,
2014-01-12 12:29:00,50.4,30.4,29.49,WSW,248,9.0,13.0,46,0.00,,---,0.00,VWS V15.00,2014-01-12 18:29:00,
2014-01-12 12:30:00,50.4,30.4,29.48,WSW,250,9.0,10.0,46,0.00,,---,0.00,VWS V15.00,2014-01-12 18:30:00,
2014-01-12 12:31:00,50.4,30.4,29.48,WSW,247,8.0,10.0,46,0.00,,---,0.00,VWS V15.00,2014-01-12 18:31:00,
2014-01-12 12:33:00,50.4,30.4,29.48,WSW,257,6.0,10.0,46,0.00,,---,0.00,VWS V15.00,2014-01-12 18:33:00,
2014-01-12 12:34:00,50.2,31.3,29.48,West,263,6.0,10.0,48,0.00,,---,0.00,VWS V15.00,2014-01-12 18:34:00,
2014-01-12 12:35:00,50.1,31.7,29.48,West,262,6.0,10.0,49,0.00,,---,0.00,VWS V15.00,2014-01-12 18:35:00,
2014-01-12 12:36:00,49.9,31.5,29.48,West,263,6.0,10.0,49,0.00,,---,0.00,VWS V15.00,2014-01-12 18:36:00,
2014-01-12 12:38:00,49.6,32.2,29.48,West,261,6.0,10.0,51,0.00,,---,0.00,VWS V15.00,2014-01-12 18:38:00,
2014-01-12 12:39:00,49.4,32.0,29.48,West,263,6.0,10.0,51,0.00,,---,0.00,VWS V15.00,2014-01-12 18:39:00,
2014-01-12 12:40:00,49.1,31.8,29.48,West,261,5.0,6.0,51,0.00,,---,0.00,VWS V15.00,2014-01-12 18:40:00,
2014-01-12 12:41:00,48.9,32.1,29.48,West,261,6.0,6.0,52,0.00,,---,0.00,VWS V15.00,2014-01-12 18:41:00,
2014-01-12 12:43:00,48.8,32.0,29.48,West,260,6.0,6.0,52,0.00,,---,0.00,VWS V15.00,2014-01-12 18:43:00,
2014-01-12 12:44:00,48.5,31.7,29.48,West,259,6.0,7.0,52,0.00,,---,0.00,VWS V15.00,2014-01-12 18:44:00,
2014-01-12 12:45:00,48.5,31.7,29.48,West,261,5.0,7.0,52,0.00,,---,0.00,VWS V15.00,2014-01-12 18:45:00,
2014-01-12 12:46:00,48.5,31.7,29.48,West,263,5.0,7.0,52,0.00,,---,0.00,VWS V15.00,2014-01-12 18:46:00,
2014-01-12 12:48:00,48.3,32.0,29.48,West,263,3.0,7.0,53,0.00,,---,0.00,VWS V15.00,2014-01-12 18:48:00,
2014-01-12 12:49:00,48.3,32.0,29.48,West,261,5.0,7.0,53,0.00,,---,0.00,VWS V15.00,2014-01-12 18:49:00,
2014-01-12 12:50:00,48.2,31.9,29.48,West,270,5.0,7.0,53,0.00,,---,0.00,VWS V15.00,2014-01-12 18:50:00,
2014-01-12 12:51:00,48.2,31.9,29.48,West,259,6.0,7.0,53,0.00,,---,0.00,VWS V15.00,2014-01-12 18:51:00,
2014-01-12 12:53:00,48.0,32.2,29.48,WSW,254,7.0,7.0,54,0.00,,---,0.00,VWS V15.00,2014-01-12 18:53:00,
2014-01-12 12:54:00,48.0,32.2,29.48,WSW,257,5.0,7.0,54,0.00,,---,0.00,VWS V15.00,2014-01-12 18:54:00,
2014-01-12 12:56:00,48.0,32.2,29.48,WSW,257,4.0,7.0,54,0.00,,---,0.00,VWS V15.00,2014-01-12 18:56:00,
2014-01-12 12:58:00,47.9,32.1,29.48,WSW,258,4.0,7.0,54,0.00,,---,0.00,VWS V15.00,2014-01-12 18:58:00,
2014-01-12 12:59:00,47.9,32.1,29.47,WSW,258,5.0,7.0,54,0.00,,---,0.00,VWS V15.00,2014-01-12 18:59:00,
2014-01-12 13:00:00,47.9,32.1,29.47,WSW,248,5.0,7.0,54,0.00,,---,0.00,VWS V15.00,2014-01-12 19:00:00,
2014-01-12 13:01:00,47.9,32.1,29.47,WSW,258,5.0,5.0,54,0.00,,---,0.00,VWS V15.00,2014-01-12 19:01:00,
2014-01-12 13:02:00,47.9,32.1,29.47,WSW,258,5.0,5.0,54,0.00,,---,0.00,VWS V15.00,2014-01-12 19:02:00,
2014-01-12 13:03:00,47.9,32.1,29.47,WSW,258,3.0,5.0,54,0.00,,---,0.00,VWS V15.00,2014-01-12 19:03:00,
2014-01-12 13:04:00,47.9,32.5,29.47,WSW,258,4.0,5.0,55,0.00,,---,0.00,VWS V15.00,2014-01-12 19:04:00,
2014-01-12 13:05:00,47.9,32.5,29.47,West,259,4.0,5.0,55,0.00,,---,0.00,VWS V15.00,2014-01-12 19:05:00,
2014-01-12 13:06:00,47.9,32.5,29.47,West,259,4.0,5.0,55,0.00,,---,0.00,VWS V15.00,2014-01-12 19:06:00,
2014-01-12 13:07:00,47.9,32.5,29.47,West,259,5.0,5.0,55,0.00,,---,0.00,VWS V15.00,2014-01-12 19:07:00,
2014-01-12 13:08:00,47.9,32.1,29.47,West,260,4.0,6.0,54,0.00,,---,0.00,VWS V15.00,2014-01-12 19:08:00,
2014-01-12 13:10:00,47.9,32.5,29.47,West,260,3.0,6.0,55,0.00,,---,0.00,VWS V15.00,2014-01-12 19:10:00,
2014-01-12 13:11:00,47.9,32.5,29.47,West,260,3.0,4.0,55,0.00,,---,0.00,VWS V15.00,2014-01-12 19:11:00,
2014-01-12 13:12:00,47.9,32.1,29.47,West,260,3.0,4.0,54,0.00,,---,0.00,VWS V15.00,2014-01-12 19:12:00,
2014-01-12 13:13:00,47.9,32.5,29.47,West,260,3.0,4.0,55,0.00,,---,0.00,VWS V15.00,2014-01-12 19:13:00,
2014-01-12 13:15:00,47.9,32.5,29.47,West,260,3.0,4.0,55,0.00,,---,0.00,VWS V15.00,2014-01-12 19:15:00,
2014-01-12 13:16:00,47.9,32.5,29.47,West,260,3.0,4.0,55,0.00,,---,0.00,VWS V15.00,2014-01-12 19:16:00,
2014-01-12 13:17:00,47.9,32.5,29.47,West,260,4.0,4.0,55,0.00,,---,0.00,VWS V15.00,2014-01-12 19:17:00,
2014-01-12 13:19:00,47.9,33.0,29.47,West,260,4.0,4.0,56,0.00,,---,0.00,VWS V15.00,2014-01-12 19:19:00,
2014-01-12 13:20:00,47.9,33.0,29.47,West,260,3.0,5.0,56,0.00,,---,0.00,VWS V15.00,2014-01-12 19:20:00,
2014-01-12 13:21:00,47.9,33.0,29.47,West,260,3.0,4.0,56,0.00,,---,0.00,VWS V15.00,2014-01-12 19:21:00,
2014-01-12 13:22:00,47.9,33.0,29.47,West,260,4.0,4.0,56,0.00,,---,0.00,VWS V15.00,2014-01-12 19:22:00,
2014-01-12 13:24:00,47.7,32.3,29.47,West,260,3.0,4.0,55,0.00,,---,0.00,VWS V15.00,2014-01-12 19:24:00,
2014-01-12 13:25:00,47.7,32.3,29.47,West,260,3.0,4.0,55,0.00,,---,0.00,VWS V15.00,2014-01-12 19:25:00,
2014-01-12 13:26:00,47.9,32.1,29.47,West,260,4.0,5.0,54,0.00,,---,0.00,VWS V15.00,2014-01-12 19:26:00,
2014-01-12 13:27:00,47.9,32.1,29.47,West,260,4.0,5.0,54,0.00,,---,0.00,VWS V15.00,2014-01-12 19:27:00,
2014-01-12 13:28:00,47.9,32.5,29.47,West,260,4.0,5.0,55,0.00,,---,0.00,VWS V15.00,2014-01-12 19:28:00,
2014-01-12 13:29:00,47.9,32.5,29.47,West,260,3.0,5.0,55,0.00,,---,0.00,VWS V15.00,2014-01-12 19:29:00,
2014-01-12 13:30:00,48.0,33.1,29.46,West,260,3.0,5.0,56,0.00,,---,0.00,VWS V15.00,2014-01-12 19:30:00,
2014-01-12 13:31:00,48.0,33.1,29.46,West,260,3.0,4.0,56,0.00,,---,0.00,VWS V15.00,2014-01-12 19:31:00,
2014-01-12 13:32:00,48.0,33.1,29.46,West,260,3.0,4.0,56,0.00,,---,0.00,VWS V15.00,2014-01-12 19:32:00,
2014-01-12 13:33:00,48.0,32.6,29.46,West,262,3.0,4.0,55,0.00,,---,0.00,VWS V15.00,2014-01-12 19:33:00,
2014-01-12 13:34:00,48.2,32.8,29.46,West,275,4.0,5.0,55,0.00,,---,0.00,VWS V15.00,2014-01-12 19:34:00,
2014-01-12 13:35:00,48.2,32.8,29.46,WNW,287,5.0,6.0,55,0.00,,---,0.00,VWS V15.00,2014-01-12 19:35:00,
2014-01-12 13:36:00,48.3,32.0,29.46,WNW,287,3.0,7.0,53,0.00,,---,0.00,VWS V15.00,2014-01-12 19:36:00,
2014-01-12 13:37:00,48.5,32.2,29.46,WNW,287,3.0,7.0,53,0.00,,---,0.00,VWS V15.00,2014-01-12 19:37:00,
2014-01-12 13:38:00,48.5,32.2,29.46,WNW,282,5.0,7.0,53,0.00,,---,0.00,VWS V15.00,2014-01-12 19:38:00,
2014-01-12 13:39:00,48.5,31.7,29.46,WNW,283,3.0,7.0,52,0.00,,---,0.00,VWS V15.00,2014-01-12 19:39:00,
2014-01-12 13:40:00,48.6,31.3,29.46,WNW,283,2.0,2.0,51,0.00,,---,0.00,VWS V15.00,2014-01-12 19:40:00,
2014-01-12 13:41:00,48.8,32.0,29.46,WNW,282,4.0,4.0,52,0.00,,---,0.00,VWS V15.00,2014-01-12 19:41:00,
2014-01-12 13:42:00,48.9,32.1,29.46,West,279,4.0,4.0,52,0.00,,---,0.00,VWS V15.00,2014-01-12 19:42:00,
2014-01-12 13:43:00,48.9,32.1,29.46,West,279,4.0,4.0,52,0.00,,---,0.00,VWS V15.00,2014-01-12 19:43:00,
2014-01-12 13:44:00,49.1,32.2,29.45,West,275,3.0,4.0,52,0.00,,---,0.00,VWS V15.00,2014-01-12 19:44:00,
2014-01-12 13:45:00,49.1,32.7,29.45,West,275,3.0,4.0,53,0.00,,---,0.00,VWS V15.00,2014-01-12 19:45:00,
2014-01-12 13:46:00,49.2,32.3,29.45,West,276,3.0,4.0,52,0.00,,---,0.00,VWS V15.00,2014-01-12 19:46:00,
2014-01-12 13:47:00,49.2,31.9,29.45,West,276,3.0,4.0,51,0.00,,---,0.00,VWS V15.00,2014-01-12 19:47:00,
2014-01-12 13:48:00,49.2,31.9,29.45,West,276,3.0,4.0,51,0.00,,---,0.00,VWS V15.00,2014-01-12 19:48:00,
2014-01-12 13:49:00,49.2,31.9,29.45,WNW,282,3.0,5.0,51,0.00,,---,0.00,VWS V15.00,2014-01-12 19:49:00,
2014-01-12 13:50:00,49.4,31.6,29.45,WNW,282,3.0,3.0,50,0.00,,---,0.00,VWS V15.00,2014-01-12 19:50:00,
2014-01-12 13:52:00,49.4,32.0,29.45,West,281,2.0,3.0,51,0.00,,---,0.00,VWS V15.00,2014-01-12 19:52:00,
2014-01-12 13:53:00,49.5,32.1,29.45,West,281,3.0,4.0,51,0.00,,---,0.00,VWS V15.00,2014-01-12 19:53:00,
2014-01-12 13:54:00,49.6,31.7,29.45,WNW,286,6.0,6.0,50,0.00,,---,0.00,VWS V15.00,2014-01-12 19:54:00,
2014-01-12 13:55:00,49.6,31.7,29.45,WNW,286,4.0,6.0,50,0.00,,---,0.00,VWS V15.00,2014-01-12 19:55:00,
2014-01-12 13:57:00,49.8,31.4,29.45,WNW,288,3.0,6.0,49,0.00,,---,0.00,VWS V15.00,2014-01-12 19:57:00,
2014-01-12 13:58:00,49.9,31.5,29.45,WNW,296,4.0,6.0,49,0.00,,---,0.00,VWS V15.00,2014-01-12 19:58:00,
2014-01-12 13:59:00,50.1,31.7,29.46,WNW,294,2.0,7.0,49,0.00,,---,0.00,VWS V15.00,2014-01-12 19:59:00,
2014-01-12 14:00:00,50.1,31.2,29.46,WNW,288,4.0,4.0,48,0.00,,---,0.00,VWS V15.00,2014-01-12 20:00:00,
2014-01-12 14:02:00,50.2,31.3,29.46,WNW,286,3.0,5.0,48,0.00,,---,0.00,VWS V15.00,2014-01-12 20:02:00,
2014-01-12 14:03:00,50.4,31.5,29.46,WNW,286,3.0,5.0,48,0.00,,---,0.00,VWS V15.00,2014-01-12 20:03:00,
2014-01-12 14:04:00,50.5,31.0,29.46,WNW,286,2.0,6.0,47,0.00,,---,0.00,VWS V15.00,2014-01-12 20:04:00,
2014-01-12 14:05:00,50.7,31.2,29.46,WNW,286,3.0,6.0,47,0.00,,---,0.00,VWS V15.00,2014-01-12 20:05:00,
2014-01-12 14:07:00,50.8,31.3,29.46,WNW,300,5.0,6.0,47,0.00,,---,0.00,VWS V15.00,2014-01-12 20:07:00,
2014-01-12 14:08:00,51.0,31.5,29.46,WNW,289,4.0,6.0,47,0.00,,---,0.00,VWS V15.00,2014-01-12 20:08:00,
2014-01-12 14:09:00,51.0,31.5,29.46,WNW,296,4.0,6.0,47,0.00,,---,0.00,VWS V15.00,2014-01-12 20:09:00,
2014-01-12 14:10:00,51.0,31.5,29.46,WNW,282,3.0,3.0,47,0.00,,---,0.00,VWS V15.00,2014-01-12 20:10:00,
2014-01-12 14:11:00,51.1,31.6,29.46,WNW,282,2.0,3.0,47,0.00,,---,0.00,VWS V15.00,2014-01-12 20:11:00,
2014-01-12 14:12:00,51.1,31.1,29.46,WNW,282,3.0,4.0,46,0.00,,---,0.00,VWS V15.00,2014-01-12 20:12:00,
2014-01-12 14:13:00,51.3,31.8,29.46,WNW,291,3.0,6.0,47,0.00,,---,0.00,VWS V15.00,2014-01-12 20:13:00,
2014-01-12 14:14:00,51.3,31.8,29.45,WNW,298,5.0,6.0,47,0.00,,---,0.00,VWS V15.00,2014-01-12 20:14:00,
2014-01-12 14:15:00,51.3,31.8,29.45,WNW,288,3.0,6.0,47,0.00,,---,0.00,VWS V15.00,2014-01-12 20:15:00,
2014-01-12 14:16:00,51.4,31.3,29.45,NW,308,2.0,6.0,46,0.00,,---,0.00,VWS V15.00,2014-01-12 20:16:00,
2014-01-12 14:17:00,51.4,31.3,29.45,NW,313,3.0,6.0,46,0.00,,---,0.00,VWS V15.00,2014-01-12 20:17:00,
2014-01-12 14:18:00,51.4,31.3,29.45,WNW,292,4.0,6.0,46,0.00,,---,0.00,VWS V15.00,2014-01-12 20:18:00,
2014-01-12 14:19:00,51.4,31.9,29.45,WNW,286,7.0,7.0,47,0.00,,---,0.00,VWS V15.00,2014-01-12 20:19:00,
2014-01-12 14:20:00,51.6,31.5,29.45,WNW,299,4.0,6.0,46,0.00,,---,0.00,VWS V15.00,2014-01-12 20:20:00,
2014-01-12 14:21:00,51.6,31.5,29.45,WNW,295,5.0,6.0,46,0.00,,---,0.00,VWS V15.00,2014-01-12 20:21:00,
2014-01-12 14:22:00,51.6,31.5,29.45,WNW,288,3.0,6.0,46,0.00,,---,0.00,VWS V15.00,2014-01-12 20:22:00,
2014-01-12 14:24:00,51.6,31.5,29.45,NW,315,4.0,6.0,46,0.00,,---,0.00,VWS V15.00,2014-01-12 20:24:00,
2014-01-12 14:25:00,51.6,31.5,29.45,WNW,302,3.0,6.0,46,0.00,,---,0.00,VWS V15.00,2014-01-12 20:25:00,
2014-01-12 14:26:00,51.6,31.5,29.45,WNW,300,2.0,6.0,46,0.00,,---,0.00,VWS V15.00,2014-01-12 20:26:00,
2014-01-12 14:27:00,51.7,31.6,29.45,WNW,301,3.0,6.0,46,0.00,,---,0.00,VWS V15.00,2014-01-12 20:27:00,
2014-01-12 14:29:00,51.7,31.6,29.45,NW,315,1.0,6.0,46,0.00,,---,0.00,VWS V15.00,2014-01-12 20:29:00,
2014-01-12 14:30:00,51.9,31.8,29.44,NW,309,2.0,2.0,46,0.00,,---,0.00,VWS V15.00,2014-01-12 20:30:00,
2014-01-12 14:31:00,52.0,31.9,29.44,NW,317,2.0,3.0,46,0.00,,---,0.00,VWS V15.00,2014-01-12 20:31:00,
2014-01-12 14:32:00,52.0,31.3,29.44,WNW,295,4.0,5.0,45,0.00,,---,0.00,VWS V15.00,2014-01-12 20:32:00,
2014-01-12 14:34:00,52.2,32.1,29.44,WNW,299,5.0,6.0,46,0.00,,---,0.00,VWS V15.00,2014-01-12 20:34:00,
2014-01-12 14:35:00,52.2,32.1,29.44,WNW,301,3.0,6.0,46,0.00,,---,0.00,VWS V15.00,2014-01-12 20:35:00,
2014-01-12 14:36:00,52.2,32.1,29.44,WNW,303,2.0,6.0,46,0.00,,---,0.00,VWS V15.00,2014-01-12 20:36:00,
2014-01-12 14:37:00,52.0,31.3,29.44,NW,304,1.0,6.0,45,0.00,,---,0.00,VWS V15.00,2014-01-12 20:37:00,
2014-01-12 14:39:00,52.0,31.9,29.44,NW,320,2.0,6.0,46,0.00,,---,0.00,VWS V15.00,2014-01-12 20:39:00,
2014-01-12 14:40:00,52.0,31.9,29.44,NW,320,3.0,6.0,46,0.00,,---,0.00,VWS V15.00,2014-01-12 20:40:00,
2014-01-12 14:41:00,52.0,31.9,29.44,NW,320,2.0,3.0,46,0.00,,---,0.00,VWS V15.00,2014-01-12 20:41:00,
2014-01-12 14:42:00,52.0,31.9,29.44,WNW,298,3.0,4.0,46,0.00,,---,0.00,VWS V15.00,2014-01-12 20:42:00,
2014-01-12 14:44:00,51.9,32.3,29.45,WNW,292,3.0,4.0,47,0.00,,---,0.00,VWS V15.00,2014-01-12 20:44:00,
2014-01-12 14:45:00,51.9,31.8,29.45,WNW,301,2.0,4.0,46,0.00,,---,0.00,VWS V15.00,2014-01-12 20:45:00,
2014-01-12 14:46:00,51.9,32.3,29.45,WNW,290,4.0,4.0,47,0.00,,---,0.00,VWS V15.00,2014-01-12 20:46:00,
2014-01-12 14:47:00,51.7,32.1,29.45,WNW,303,1.0,5.0,47,0.00,,---,0.00,VWS V15.00,2014-01-12 20:47:00,
2014-01-12 14:49:00,51.6,32.0,29.45,WNW,285,2.0,5.0,47,0.00,,---,0.00,VWS V15.00,2014-01-12 20:49:00,
2014-01-12 14:50:00,51.6,32.0,29.45,NW,311,1.0,5.0,47,0.00,,---,0.00,VWS V15.00,2014-01-12 20:50:00,
2014-01-12 14:51:00,51.6,32.0,29.45,NW,311,1.0,3.0,47,0.00,,---,0.00,VWS V15.00,2014-01-12 20:51:00,
2014-01-12 14:52:00,51.6,31.5,29.45,NW,311,2.0,4.0,46,0.00,,---,0.00,VWS V15.00,2014-01-12 20:52:00,
2014-01-12 14:54:00,51.6,31.5,29.45,NW,317,3.0,4.0,46,0.00,,---,0.00,VWS V15.00,2014-01-12 20:54:00,
2014-01-12 14:55:00,51.6,31.5,29.45,NW,319,3.0,4.0,46,0.00,,---,0.00,VWS V15.00,2014-01-12 20:55:00,
2014-01-12 14:56:00,51.6,31.5,29.45,NW,319,3.0,4.0,46,0.00,,---,0.00,VWS V15.00,2014-01-12 20:56:00,
2014-01-12 14:58:00,51.6,31.5,29.45,NW,319,3.0,4.0,46,0.00,,---,0.00,VWS V15.00,2014-01-12 20:58:00,
2014-01-12 15:00:00,51.6,32.0,29.47,WNW,292,4.0,5.0,47,0.00,,---,0.00,VWS V15.00,2014-01-12 21:00:00,
2014-01-12 15:01:00,51.6,32.0,29.47,NW,306,2.0,6.0,47,0.00,,---,0.00,VWS V15.00,2014-01-12 21:01:00,
2014-01-12 15:03:00,51.6,31.5,29.47,NNW,338,2.0,6.0,46,0.00,,---,0.00,VWS V15.00,2014-01-12 21:03:00,
2014-01-12 15:05:00,51.4,31.3,29.47,WNW,298,3.0,6.0,46,0.00,,---,0.00,VWS V15.00,2014-01-12 21:05:00,
2014-01-12 15:06:00,51.4,31.3,29.47,NNW,327,2.0,6.0,46,0.00,,---,0.00,VWS V15.00,2014-01-12 21:06:00,
2014-01-12 15:07:00,51.3,31.2,29.47,WNW,301,1.0,6.0,46,0.00,,---,0.00,VWS V15.00,2014-01-12 21:07:00,
2014-01-12 15:08:00,51.3,30.7,29.47,NW,309,1.0,6.0,45,0.00,,---,0.00,VWS V15.00,2014-01-12 21:08:00,
2014-01-12 15:10:00,51.3,31.2,29.47,NW,309,1.0,6.0,46,0.00,,---,0.00,VWS V15.00,2014-01-12 21:10:00,
2014-01-12 15:11:00,51.3,31.2,29.47,NW,309,2.0,3.0,46,0.00,,---,0.00,VWS V15.00,2014-01-12 21:11:00,
2014-01-12 15:12:00,51.1,31.1,29.47,WNW,301,3.0,4.0,46,0.00,,---,0.00,VWS V15.00,2014-01-12 21:12:00,
2014-01-12 15:13:00,51.1,31.1,29.47,WNW,289,2.0,4.0,46,0.00,,---,0.00,VWS V15.00,2014-01-12 21:13:00,
2014-01-12 15:15:00,51.0,31.5,29.48,WNW,298,5.0,6.0,47,0.00,,---,0.00,VWS V15.00,2014-01-12 21:15:00,
2014-01-12 15:16:00,51.0,31.0,29.48,WNW,292,7.0,7.0,46,0.00,,---,0.00,VWS V15.00,2014-01-12 21:16:00,
2014-01-12 15:17:00,51.0,30.4,29.48,WNW,294,7.0,7.0,45,0.00,,---,0.00,VWS V15.00,2014-01-12 21:17:00,
2014-01-12 15:18:00,50.8,30.8,29.48,WNW,301,4.0,7.0,46,0.00,,---,0.00,VWS V15.00,2014-01-12 21:18:00,
2014-01-12 15:20:00,50.7,31.2,29.48,WNW,300,3.0,3.0,47,0.00,,---,0.00,VWS V15.00,2014-01-12 21:20:00,
2014-01-12 15:21:00,50.7,31.7,29.48,WNW,291,5.0,5.0,48,0.00,,---,0.00,VWS V15.00,2014-01-12 21:21:00,
2014-01-12 15:22:00,50.7,31.2,29.48,WNW,301,4.0,7.0,47,0.00,,---,0.00,VWS V15.00,2014-01-12 21:22:00,
2014-01-12 15:23:00,50.5,31.0,29.48,WNW,295,5.0,7.0,47,0.00,,---,0.00,VWS V15.00,2014-01-12 21:23:00,
2014-01-12 15:25:00,50.5,31.6,29.48,WNW,297,3.0,7.0,48,0.00,,---,0.00,VWS V15.00,2014-01-12 21:25:00,
2014-01-12 15:26:00,50.5,31.6,29.48,WNW,296,4.0,7.0,48,0.00,,---,0.00,VWS V15.00,2014-01-12 21:26:00,
2014-01-12 15:27:00,50.5,31.6,29.48,WNW,285,4.0,7.0,48,0.00,,---,0.00,VWS V15.00,2014-01-12 21:27:00,
2014-01-12 15:28:00,50.4,31.0,29.48,WNW,302,3.0,7.0,47,0.00,,---,0.00,VWS V15.00,2014-01-12 21:28:00,
2014-01-12 15:30:00,50.4,31.5,29.49,WNW,288,6.0,6.0,48,0.00,,---,0.00,VWS V15.00,2014-01-12 21:30:00,
2014-01-12 15:31:00,50.4,31.5,29.49,WNW,298,4.0,6.0,48,0.00,,---,0.00,VWS V15.00,2014-01-12 21:31:00,
2014-01-12 15:32:00,50.4,31.5,29.49,WNW,295,5.0,7.0,48,0.00,,---,0.00,VWS V15.00,2014-01-12 21:32:00,
2014-01-12 15:33:00,50.2,30.8,29.49,WNW,292,3.0,7.0,47,0.00,,---,0.00,VWS V15.00,2014-01-12 21:33:00,
2014-01-12 15:35:00,50.2,31.3,29.49,WNW,293,3.0,7.0,48,0.00,,---,0.00,VWS V15.00,2014-01-12 21:35:00,
2014-01-12 15:36:00,50.2,31.3,29.49,WNW,293,3.0,7.0,48,0.00,,---,0.00,VWS V15.00,2014-01-12 21:36:00,
2014-01-12 15:37:00,50.2,31.3,29.49,WNW,301,3.0,7.0,48,0.00,,---,0.00,VWS V15.00,2014-01-12 21:37:00,
2014-01-12 15:38:00,50.2,31.3,29.49,NW,317,3.0,7.0,48,0.00,,---,0.00,VWS V15.00,2014-01-12 21:38:00,
2014-01-12 15:40:00,50.2,31.3,29.49,WNW,298,4.0,5.0,48,0.00,,---,0.00,VWS V15.00,2014-01-12 21:40:00,
2014-01-12 15:41:00,50.1,31.2,29.49,WNW,296,4.0,5.0,48,0.00,,---,0.00,VWS V15.00,2014-01-12 21:41:00,
2014-01-12 15:42:00,50.1,31.2,29.49,WNW,295,4.0,6.0,48,0.00,,---,0.00,VWS V15.00,2014-01-12 21:42:00,
2014-01-12 15:43:00,50.1,31.2,29.49,WNW,290,2.0,6.0,48,0.00,,---,0.00,VWS V15.00,2014-01-12 21:43:00,
2014-01-12 15:44:00,50.1,30.7,29.49,WNW,300,5.0,6.0,47,0.00,,---,0.00,VWS V15.00,2014-01-12 21:44:00,
2014-01-12 15:45:00,50.1,30.7,29.50,WNW,287,5.0,6.0,47,0.00,,---,0.00,VWS V15.00,2014-01-12 21:45:00,
2014-01-12 15:46:00,49.9,30.5,29.50,WNW,302,5.0,6.0,47,0.00,,---,0.00,VWS V15.00,2014-01-12 21:46:00,
2014-01-12 15:47:00,49.9,30.0,29.50,WNW,295,3.0,6.0,46,0.00,,---,0.00,VWS V15.00,2014-01-12 21:47:00,
2014-01-12 15:48:00,49.9,30.5,29.50,WNW,295,2.0,6.0,47,0.00,,---,0.00,VWS V15.00,2014-01-12 21:48:00,
2014-01-12 15:49:00,49.9,30.5,29.50,WNW,302,2.0,6.0,47,0.00,,---,0.00,VWS V15.00,2014-01-12 21:49:00,
2014-01-12 15:50:00,49.8,30.4,29.50,WNW,302,4.0,6.0,47,0.00,,---,0.00,VWS V15.00,2014-01-12 21:50:00,
2014-01-12 15:51:00,49.8,30.4,29.50,WNW,292,4.0,6.0,47,0.00,,---,0.00,VWS V15.00,2014-01-12 21:51:00,
2014-01-12 15:52:00,49.8,30.4,29.50,WNW,297,5.0,6.0,47,0.00,,---,0.00,VWS V15.00,2014-01-12 21:52:00,
2014-01-12 15:53:00,49.8,30.4,29.50,NW,309,4.0,6.0,47,0.00,,---,0.00,VWS V15.00,2014-01-12 21:53:00,
2014-01-12 15:54:00,49.8,30.4,29.50,NW,310,2.0,6.0,47,0.00,,---,0.00,VWS V15.00,2014-01-12 21:54:00,
2014-01-12 15:56:00,49.8,30.4,29.50,WNW,295,3.0,6.0,47,0.00,,---,0.00,VWS V15.00,2014-01-12 21:56:00,
2014-01-12 15:57:00,49.8,30.4,29.50,WNW,298,3.0,6.0,47,0.00,,---,0.00,VWS V15.00,2014-01-12 21:57:00,
2014-01-12 15:58:00,49.8,30.9,29.50,NW,310,2.0,6.0,48,0.00,,---,0.00,VWS V15.00,2014-01-12 21:58:00,
2014-01-12 15:59:00,49.6,30.7,29.50,WNW,288,5.0,7.0,48,0.00,,---,0.00,VWS V15.00,2014-01-12 21:59:00,
2014-01-12 16:00:00,49.6,30.7,29.50,WNW,292,4.0,7.0,48,0.00,,---,0.00,VWS V15.00,2014-01-12 22:00:00,
2014-01-12 16:01:00,49.6,30.2,29.50,WNW,300,3.0,6.0,47,0.00,,---,0.00,VWS V15.00,2014-01-12 22:01:00,
2014-01-12 16:03:00,49.6,30.7,29.50,WNW,294,2.0,6.0,48,0.00,,---,0.00,VWS V15.00,2014-01-12 22:03:00,
2014-01-12 16:04:00,49.6,30.7,29.50,WNW,294,1.0,6.0,48,0.00,,---,0.00,VWS V15.00,2014-01-12 22:04:00,
2014-01-12 16:06:00,49.5,30.6,29.50,NW,317,3.0,6.0,48,0.00,,---,0.00,VWS V15.00,2014-01-12 22:06:00,
2014-01-12 16:07:00,49.5,30.6,29.50,NW,317,1.0,6.0,48,0.00,,---,0.00,VWS V15.00,2014-01-12 22:07:00,
2014-01-12 16:08:00,49.5,30.6,29.50,NW,317,0.0,6.0,48,0.00,,---,0.00,VWS V15.00,2014-01-12 22:08:00,
2014-01-12 16:09:00,49.5,30.6,29.50,NW,317,1.0,6.0,48,0.00,,---,0.00,VWS V15.00,2014-01-12 22:09:00,
2014-01-12 16:10:00,49.5,30.6,29.50,NW,315,2.0,5.0,48,0.00,,---,0.00,VWS V15.00,2014-01-12 22:10:00,
2014-01-12 16:11:00,49.5,30.1,29.50,NW,318,2.0,3.0,47,0.00,,---,0.00,VWS V15.00,2014-01-12 22:11:00,
2014-01-12 16:12:00,49.5,30.1,29.50,NW,317,1.0,3.0,47,0.00,,---,0.00,VWS V15.00,2014-01-12 22:12:00,
2014-01-12 16:13:00,49.5,30.1,29.50,NW,317,0.0,3.0,47,0.00,,---,0.00,VWS V15.00,2014-01-12 22:13:00,
2014-01-12 16:14:00,49.5,30.1,29.50,NNW,329,2.0,4.0,47,0.00,,---,0.00,VWS V15.00,2014-01-12 22:14:00,
2014-01-12 16:16:00,49.5,29.6,29.50,NW,312,1.0,6.0,46,0.00,,---,0.00,VWS V15.00,2014-01-12 22:16:00,
2014-01-12 16:17:00,49.5,30.1,29.50,WNW,303,3.0,6.0,47,0.00,,---,0.00,VWS V15.00,2014-01-12 22:17:00,
2014-01-12 16:18:00,49.5,30.1,29.50,NW,304,2.0,6.0,47,0.00,,---,0.00,VWS V15.00,2014-01-12 22:18:00,
2014-01-12 16:19:00,49.5,30.1,29.50,NW,308,1.0,6.0,47,0.00,,---,0.00,VWS V15.00,2014-01-12 22:19:00,
2014-01-12 16:20:00,49.4,30.0,29.50,NW,315,2.0,6.0,47,0.00,,---,0.00,VWS V15.00,2014-01-12 22:20:00,
2014-01-12 16:21:00,49.4,30.0,29.50,NW,317,2.0,3.0,47,0.00,,---,0.00,VWS V15.00,2014-01-12 22:21:00,
2014-01-12 16:22:00,49.4,30.0,29.50,NW,317,0.0,3.0,47,0.00,,---,0.00,VWS V15.00,2014-01-12 22:22:00,
2014-01-12 16:23:00,49.4,30.0,29.50,NNW,332,2.0,4.0,47,0.00,,---,0.00,VWS V15.00,2014-01-12 22:23:00,
2014-01-12 16:24:00,49.2,29.9,29.50,WNW,299,3.0,4.0,47,0.00,,---,0.00,VWS V15.00,2014-01-12 22:24:00,
2014-01-12 16:26:00,49.2,29.9,29.50,NW,304,0.0,4.0,47,0.00,,---,0.00,VWS V15.00,2014-01-12 22:26:00,
2014-01-12 16:27:00,49.2,29.9,29.50,NW,304,1.0,4.0,47,0.00,,---,0.00,VWS V15.00,2014-01-12 22:27:00,
2014-01-12 16:28:00,49.2,29.9,29.50,NW,315,1.0,4.0,47,0.00,,---,0.00,VWS V15.00,2014-01-12 22:28:00,
2014-01-12 16:29:00,49.2,30.4,29.50,NW,315,2.0,4.0,48,0.00,,---,0.00,VWS V15.00,2014-01-12 22:29:00,
2014-01-12 16:30:00,49.1,30.3,29.51,NW,315,1.0,4.0,48,0.00,,---,0.00,VWS V15.00,2014-01-12 22:30:00,
2014-01-12 16:31:00,49.1,30.3,29.51,NW,314,1.0,3.0,48,0.00,,---,0.00,VWS V15.00,2014-01-12 22:31:00,
2014-01-12 16:32:00,49.1,30.3,29.51,NW,314,0.0,3.0,48,0.00,,---,0.00,VWS V15.00,2014-01-12 22:32:00,
2014-01-12 16:33:00,49.1,30.3,29.51,NW,314,2.0,3.0,48,0.00,,---,0.00,VWS V15.00,2014-01-12 22:33:00,
2014-01-12 16:34:00,49.1,30.3,29.51,NW,314,1.0,3.0,48,0.00,,---,0.00,VWS V15.00,2014-01-12 22:34:00,
2014-01-12 16:36:00,48.9,30.1,29.51,NW,314,2.0,3.0,48,0.00,,---,0.00,VWS V15.00,2014-01-12 22:36:00,
2014-01-12 16:37:00,48.9,30.1,29.51,NW,317,2.0,4.0,48,0.00,,---,0.00,VWS V15.00,2014-01-12 22:37:00,
2014-01-12 16:38:00,48.9,30.1,29.51,NW,319,1.0,4.0,48,0.00,,---,0.00,VWS V15.00,2014-01-12 22:38:00,
2014-01-12 16:39:00,48.9,30.1,29.51,NW,317,3.0,4.0,48,0.00,,---,0.00,VWS V15.00,2014-01-12 22:39:00,
2014-01-12 16:40:00,48.8,30.0,29.51,NW,319,2.0,4.0,48,0.00,,---,0.00,VWS V15.00,2014-01-12 22:40:00,
2014-01-12 16:41:00,48.8,30.5,29.51,NW,319,1.0,2.0,49,0.00,,---,0.00,VWS V15.00,2014-01-12 22:41:00,
2014-01-12 16:42:00,48.8,30.5,29.51,NW,319,2.0,2.0,49,0.00,,---,0.00,VWS V15.00,2014-01-12 22:42:00,
2014-01-12 16:43:00,48.6,30.3,29.51,NW,319,1.0,2.0,49,0.00,,---,0.00,VWS V15.00,2014-01-12 22:43:00,
2014-01-12 16:44:00,48.6,30.3,29.51,NW,319,2.0,2.0,49,0.00,,---,0.00,VWS V15.00,2014-01-12 22:44:00,
2014-01-12 16:45:00,48.6,30.3,29.51,NW,319,0.0,2.0,49,0.00,,---,0.00,VWS V15.00,2014-01-12 22:45:00,
2014-01-12 16:46:00,48.6,30.3,29.51,NW,319,0.0,2.0,49,0.00,,---,0.00,VWS V15.00,2014-01-12 22:46:00,
2014-01-12 16:47:00,48.6,30.3,29.51,NW,319,0.0,2.0,49,0.00,,---,0.00,VWS V15.00,2014-01-12 22:47:00,
2014-01-12 16:48:00,48.5,30.2,29.51,NW,319,0.0,2.0,49,0.00,,---,0.00,VWS V15.00,2014-01-12 22:48:00,
2014-01-12 16:49:00,48.5,30.2,29.51,NW,319,0.0,2.0,49,0.00,,---,0.00,VWS V15.00,2014-01-12 22:49:00,
2014-01-12 16:50:00,48.5,30.2,29.51,NW,319,0.0,2.0,49,0.00,,---,0.00,VWS V15.00,2014-01-12 22:50:00,
2014-01-12 16:51:00,48.3,30.5,29.51,NW,319,0.0,1.0,50,0.00,,---,0.00,VWS V15.00,2014-01-12 22:51:00,
2014-01-12 16:52:00,48.3,30.5,29.51,NW,319,2.0,2.0,50,0.00,,---,0.00,VWS V15.00,2014-01-12 22:52:00,
2014-01-12 16:53:00,48.3,30.5,29.51,NW,319,0.0,2.0,50,0.00,,---,0.00,VWS V15.00,2014-01-12 22:53:00,
2014-01-12 16:54:00,48.3,30.5,29.51,NW,319,0.0,2.0,50,0.00,,---,0.00,VWS V15.00,2014-01-12 22:54:00,
2014-01-12 16:55:00,48.3,30.5,29.51,NW,319,0.0,2.0,50,0.00,,---,0.00,VWS V15.00,2014-01-12 22:55:00,
2014-01-12 16:56:00,48.2,30.5,29.51,NW,319,0.0,2.0,50,0.00,,---,0.00,VWS V15.00,2014-01-12 22:56:00,
2014-01-12 16:57:00,48.2,30.5,29.51,NW,319,1.0,2.0,50,0.00,,---,0.00,VWS V15.00,2014-01-12 22:57:00,
2014-01-12 16:59:00,48.2,30.5,29.51,NW,319,2.0,3.0,50,0.00,,---,0.00,VWS V15.00,2014-01-12 22:59:00,
2014-01-12 17:00:00,48.0,30.8,29.53,NW,319,0.0,3.0,51,0.00,,---,0.00,VWS V15.00,2014-01-12 23:00:00,
2014-01-12 17:01:00,48.0,30.8,29.53,North,355,3.0,5.0,51,0.00,,---,0.00,VWS V15.00,2014-01-12 23:01:00,
2014-01-12 17:02:00,48.0,30.8,29.53,NNW,339,2.0,5.0,51,0.00,,---,0.00,VWS V15.00,2014-01-12 23:02:00,
2014-01-12 17:03:00,48.0,30.8,29.53,NNW,339,2.0,5.0,51,0.00,,---,0.00,VWS V15.00,2014-01-12 23:03:00,
2014-01-12 17:04:00,47.9,30.7,29.53,NNW,343,3.0,5.0,51,0.00,,---,0.00,VWS V15.00,2014-01-12 23:04:00,
2014-01-12 17:05:00,47.9,30.7,29.53,NNW,348,2.0,5.0,51,0.00,,---,0.00,VWS V15.00,2014-01-12 23:05:00,
2014-01-12 17:06:00,47.9,30.7,29.53,North,355,2.0,5.0,51,0.00,,---,0.00,VWS V15.00,2014-01-12 23:06:00,
2014-01-12 17:07:00,47.7,30.5,29.53,North,355,2.0,5.0,51,0.00,,---,0.00,VWS V15.00,2014-01-12 23:07:00,
2014-01-12 17:08:00,47.7,30.5,29.53,NNW,329,2.0,5.0,51,0.00,,---,0.00,VWS V15.00,2014-01-12 23:08:00,
2014-01-12 17:09:00,47.7,30.5,29.53,North,9,5.0,5.0,51,0.00,,---,0.00,VWS V15.00,2014-01-12 23:09:00,
2014-01-12 17:10:00,47.7,31.0,29.53,NNW,342,2.0,2.0,52,0.00,,---,0.00,VWS V15.00,2014-01-12 23:10:00,
2014-01-12 17:12:00,47.6,30.9,29.53,NW,325,0.0,4.0,52,0.00,,---,0.00,VWS V15.00,2014-01-12 23:12:00,
2014-01-12 17:13:00,47.6,30.9,29.53,NW,325,1.0,4.0,52,0.00,,---,0.00,VWS V15.00,2014-01-12 23:13:00,
2014-01-12 17:14:00,47.4,30.7,29.53,NW,325,0.0,4.0,52,0.00,,---,0.00,VWS V15.00,2014-01-12 23:14:00,
2014-01-12 17:15:00,47.4,30.7,29.53,North,355,1.0,4.0,52,0.00,,---,0.00,VWS V15.00,2014-01-12 23:15:00,
2014-01-12 17:17:00,47.4,30.7,29.53,NNE,15,3.0,4.0,52,0.00,,---,0.00,VWS V15.00,2014-01-12 23:17:00,
2014-01-12 17:18:00,47.3,30.6,29.53,NW,325,5.0,5.0,52,0.00,,---,0.00,VWS V15.00,2014-01-12 23:18:00,
2014-01-12 17:19:00,47.3,30.6,29.53,NNW,344,4.0,5.0,52,0.00,,---,0.00,VWS V15.00,2014-01-12 23:19:00,
2014-01-12 17:20:00,47.3,30.6,29.53,NNW,344,1.0,5.0,52,0.00,,---,0.00,VWS V15.00,2014-01-12 23:20:00,
2014-01-12 17:22:00,47.1,30.9,29.53,NNE,30,1.0,4.0,53,0.00,,---,0.00,VWS V15.00,2014-01-12 23:22:00,
2014-01-12 17:23:00,47.1,30.9,29.53,NNE,30,1.0,4.0,53,0.00,,---,0.00,VWS V15.00,2014-01-12 23:23:00,
2014-01-12 17:24:00,47.1,30.9,29.53,NNW,336,5.0,5.0,53,0.00,,---,0.00,VWS V15.00,2014-01-12 23:24:00,
2014-01-12 17:25:00,47.0,30.8,29.53,WNW,302,2.0,6.0,53,0.00,,---,0.00,VWS V15.00,2014-01-12 23:25:00,
2014-01-12 17:27:00,47.0,30.8,29.53,NNW,342,3.0,6.0,53,0.00,,---,0.00,VWS V15.00,2014-01-12 23:27:00,
2014-01-12 17:28:00,47.0,30.8,29.53,NNW,346,3.0,6.0,53,0.00,,---,0.00,VWS V15.00,2014-01-12 23:28:00,
2014-01-12 17:29:00,46.8,30.6,29.53,NNW,341,1.0,6.0,53,0.00,,---,0.00,VWS V15.00,2014-01-12 23:29:00,
2014-01-12 17:30:00,46.8,31.0,29.53,NW,317,2.0,4.0,54,0.00,,---,0.00,VWS V15.00,2014-01-12 23:30:00,
2014-01-12 17:32:00,46.8,31.0,29.53,NW,325,4.0,5.0,54,0.00,,---,0.00,VWS V15.00,2014-01-12 23:32:00,
2014-01-12 17:33:00,46.7,31.0,29.53,NW,323,2.0,5.0,54,0.00,,---,0.00,VWS V15.00,2014-01-12 23:33:00,
2014-01-12 17:34:00,46.7,31.0,29.53,NW,317,4.0,5.0,54,0.00,,---,0.00,VWS V15.00,2014-01-12 23:34:00,
2014-01-12 17:35:00,46.5,30.8,29.53,North,355,3.0,5.0,54,0.00,,---,0.00,VWS V15.00,2014-01-12 23:35:00,
2014-01-12 17:37:00,46.5,30.8,29.53,NW,323,4.0,7.0,54,0.00,,---,0.00,VWS V15.00,2014-01-12 23:37:00,
2014-01-12 17:38:00,46.5,30.8,29.53,NNW,348,2.0,7.0,54,0.00,,---,0.00,VWS V15.00,2014-01-12 23:38:00,
2014-01-12 17:39:00,46.5,30.8,29.53,NW,311,1.0,7.0,54,0.00,,---,0.00,VWS V15.00,2014-01-12 23:39:00,
2014-01-12 17:40:00,46.5,30.8,29.53,WNW,303,3.0,3.0,54,0.00,,---,0.00,VWS V15.00,2014-01-12 23:40:00,
2014-01-12 17:41:00,46.5,30.8,29.53,NW,325,3.0,4.0,54,0.00,,---,0.00,VWS V15.00,2014-01-12 23:41:00,
2014-01-12 17:42:00,46.4,30.7,29.53,WNW,297,3.0,4.0,54,0.00,,---,0.00,VWS V15.00,2014-01-12 23:42:00,
2014-01-12 17:43:00,46.4,30.7,29.53,NNW,347,1.0,5.0,54,0.00,,---,0.00,VWS V15.00,2014-01-12 23:43:00,
2014-01-12 17:44:00,46.2,30.5,29.55,NNW,327,3.0,5.0,54,0.00,,---,0.00,VWS V15.00,2014-01-12 23:44:00,
2014-01-12 17:45:00,46.2,30.9,29.55,NNW,347,3.0,5.0,55,0.00,,---,0.00,VWS V15.00,2014-01-12 23:45:00,
2014-01-12 17:46:00,46.2,30.9,29.55,NNW,347,2.0,5.0,55,0.00,,---,0.00,VWS V15.00,2014-01-12 23:46:00,
2014-01-12 17:47:00,46.1,30.9,29.55,NNW,342,4.0,5.0,55,0.00,,---,0.00,VWS V15.00,2014-01-12 23:47:00,
2014-01-12 17:48:00,46.1,30.9,29.55,NNW,331,2.0,5.0,55,0.00,,---,0.00,VWS V15.00,2014-01-12 23:48:00,
2014-01-12 17:49:00,46.1,30.9,29.55,NNW,331,3.0,5.0,55,0.00,,---,0.00,VWS V15.00,2014-01-12 23:49:00,
2014-01-12 17:50:00,46.1,30.9,29.55,NW,326,3.0,3.0,55,0.00,,---,0.00,VWS V15.00,2014-01-12 23:50:00,
2014-01-12 17:51:00,46.1,30.9,29.55,NNW,327,3.0,3.0,55,0.00,,---,0.00,VWS V15.00,2014-01-12 23:51:00,
2014-01-12 17:52:00,46.0,30.8,29.55,NW,312,2.0,4.0,55,0.00,,---,0.00,VWS V15.00,2014-01-12 23:52:00,
2014-01-12 17:53:00,46.0,30.8,29.55,NW,306,3.0,4.0,55,0.00,,---,0.00,VWS V15.00,2014-01-12 23:53:00,
2014-01-12 17:54:00,46.0,30.8,29.55,WNW,300,4.0,5.0,55,0.00,,---,0.00,VWS V15.00,2014-01-12 23:54:00,
2014-01-12 17:55:00,46.0,31.6,29.55,WNW,292,4.0,5.0,57,0.00,,---,0.00,VWS V15.00,2014-01-12 23:55:00,
2014-01-12 17:56:00,45.8,31.5,29.55,WNW,291,3.0,5.0,57,0.00,,---,0.00,VWS V15.00,2014-01-12 23:56:00,
2014-01-12 17:57:00,45.8,30.6,29.55,WNW,293,3.0,6.0,55,0.00,,---,0.00,VWS V15.00,2014-01-12 23:57:00,
2014-01-12 17:58:00,45.7,30.9,29.55,NW,306,3.0,6.0,56,0.00,,---,0.00,VWS V15.00,2014-01-12 23:58:00,
2014-01-12 17:59:00,45.7,30.9,29.56,WNW,298,2.0,6.0,56,0.00,,---,0.00,VWS V15.00,2014-01-12 23:59:00,
2014-01-12 18:00:00,45.7,30.9,29.56,WNW,292,3.0,6.0,56,0.00,,---,0.00,VWS V15.00,2014-01-13 00:00:00,
2014-01-12 18:01:00,45.7,30.9,29.56,WNW,298,0.0,2.0,56,0.00,,---,0.00,VWS V15.00,2014-01-13 00:01:00,
2014-01-12 18:02:00,45.5,30.7,29.56,NW,315,2.0,3.0,56,0.00,,---,0.00,VWS V15.00,2014-01-13 00:02:00,
2014-01-12 18:03:00,45.5,30.7,29.56,NW,315,1.0,3.0,56,0.00,,---,0.00,VWS V15.00,2014-01-13 00:03:00,
2014-01-12 18:04:00,45.4,30.6,29.56,NW,315,1.0,3.0,56,0.00,,---,0.00,VWS V15.00,2014-01-13 00:04:00,
2014-01-12 18:06:00,45.4,30.6,29.56,NW,315,2.0,3.0,56,0.00,,---,0.00,VWS V15.00,2014-01-13 00:06:00,
2014-01-12 18:07:00,45.2,30.5,29.56,WNW,303,2.0,3.0,56,0.00,,---,0.00,VWS V15.00,2014-01-13 00:07:00,
2014-01-12 18:08:00,45.2,30.5,29.56,WNW,303,3.0,3.0,56,0.00,,---,0.00,VWS V15.00,2014-01-13 00:08:00,
2014-01-12 18:09:00,45.2,30.9,29.56,WNW,303,3.0,3.0,57,0.00,,---,0.00,VWS V15.00,2014-01-13 00:09:00,
2014-01-12 18:10:00,45.2,30.9,29.56,WNW,292,2.0,3.0,57,0.00,,---,0.00,VWS V15.00,2014-01-13 00:10:00,
2014-01-12 18:11:00,45.1,30.8,29.56,WNW,303,0.0,2.0,57,0.00,,---,0.00,VWS V15.00,2014-01-13 00:11:00,
2014-01-12 18:12:00,45.1,30.8,29.56,WNW,303,1.0,2.0,57,0.00,,---,0.00,VWS V15.00,2014-01-13 00:12:00,
2014-01-12 18:14:00,44.9,30.6,29.56,WNW,303,1.0,2.0,57,0.00,,---,0.00,VWS V15.00,2014-01-13 00:14:00,
2014-01-12 18:16:00,44.9,30.6,29.56,WNW,303,3.0,3.0,57,0.00,,---,0.00,VWS V15.00,2014-01-13 00:16:00,
2014-01-12 18:17:00,44.8,30.5,29.56,WNW,303,3.0,3.0,57,0.00,,---,0.00,VWS V15.00,2014-01-13 00:17:00,
2014-01-12 18:19:00,44.5,30.2,29.56,WNW,291,3.0,3.0,57,0.00,,---,0.00,VWS V15.00,2014-01-13 00:19:00,
2014-01-12 18:20:00,44.2,30.4,29.56,WNW,292,2.0,3.0,58,0.00,,---,0.00,VWS V15.00,2014-01-13 00:20:00,
2014-01-12 18:21:00,44.1,30.7,29.56,WNW,291,2.0,3.0,59,0.00,,---,0.00,VWS V15.00,2014-01-13 00:21:00,
2014-01-12 18:22:00,43.8,30.4,29.56,WNW,291,2.0,3.0,59,0.00,,---,0.00,VWS V15.00,2014-01-13 00:22:00,
2014-01-12 18:24:00,43.6,30.2,29.56,WNW,291,2.0,3.0,59,0.00,,---,0.00,VWS V15.00,2014-01-13 00:24:00,
2014-01-12 18:26:00,43.6,30.2,29.56,WNW,291,3.0,3.0,59,0.00,,---,0.00,VWS V15.00,2014-01-13 00:26:00,
2014-01-12 18:27:00,43.6,30.2,29.56,WNW,291,2.0,4.0,59,0.00,,---,0.00,VWS V15.00,2014-01-13 00:27:00,
2014-01-12 18:29:00,43.8,30.4,29.56,WNW,291,2.0,4.0,59,0.00,,---,0.00,VWS V15.00,2014-01-13 00:29:00,
2014-01-12 18:30:00,43.8,30.4,29.58,WNW,291,2.0,4.0,59,0.00,,---,0.00,VWS V15.00,2014-01-13 00:30:00,
2014-01-12 18:31:00,43.8,30.4,29.58,WNW,291,3.0,3.0,59,0.00,,---,0.00,VWS V15.00,2014-01-13 00:31:00,
2014-01-12 18:32:00,43.8,30.4,29.58,WNW,291,2.0,3.0,59,0.00,,---,0.00,VWS V15.00,2014-01-13 00:32:00,
2014-01-12 18:34:00,43.8,30.4,29.58,WNW,291,2.0,3.0,59,0.00,,---,0.00,VWS V15.00,2014-01-13 00:34:00,
2014-01-12 18:35:00,43.8,30.4,29.58,WNW,291,2.0,3.0,59,0.00,,---,0.00,VWS V15.00,2014-01-13 00:35:00,
2014-01-12 18:36:00,43.6,30.2,29.58,WNW,291,3.0,3.0,59,0.00,,---,0.00,VWS V15.00,2014-01-13 00:36:00,
2014-01-12 18:37:00,43.6,30.2,29.58,WNW,291,3.0,4.0,59,0.00,,---,0.00,VWS V15.00,2014-01-13 00:37:00,
2014-01-12 18:39:00,43.6,30.2,29.58,WNW,291,2.0,4.0,59,0.00,,---,0.00,VWS V15.00,2014-01-13 00:39:00,
2014-01-12 18:40:00,43.6,30.2,29.58,WNW,291,2.0,4.0,59,0.00,,---,0.00,VWS V15.00,2014-01-13 00:40:00,
2014-01-12 18:41:00,43.6,30.2,29.58,WNW,291,2.0,2.0,59,0.00,,---,0.00,VWS V15.00,2014-01-13 00:41:00,
2014-01-12 18:42:00,43.5,30.1,29.58,WNW,291,2.0,2.0,59,0.00,,---,0.00,VWS V15.00,2014-01-13 00:42:00,
2014-01-12 18:44:00,43.5,30.1,29.58,WNW,291,1.0,2.0,59,0.00,,---,0.00,VWS V15.00,2014-01-13 00:44:00,
2014-01-12 18:45:00,43.5,30.1,29.58,WNW,291,1.0,2.0,59,0.00,,---,0.00,VWS V15.00,2014-01-13 00:45:00,
2014-01-12 18:46:00,43.5,30.1,29.58,WNW,291,2.0,2.0,59,0.00,,---,0.00,VWS V15.00,2014-01-13 00:46:00,
2014-01-12 18:47:00,43.5,30.1,29.58,WNW,291,2.0,3.0,59,0.00,,---,0.00,VWS V15.00,2014-01-13 00:47:00,
2014-01-12 18:49:00,43.5,30.1,29.58,WNW,291,3.0,3.0,59,0.00,,---,0.00,VWS V15.00,2014-01-13 00:49:00,
2014-01-12 18:50:00,43.5,30.1,29.58,WNW,291,2.0,3.0,59,0.00,,---,0.00,VWS V15.00,2014-01-13 00:50:00,
2014-01-12 18:51:00,43.5,30.1,29.58,WNW,290,3.0,4.0,59,0.00,,---,0.00,VWS V15.00,2014-01-13 00:51:00,
2014-01-12 18:52:00,43.5,30.1,29.58,WNW,291,3.0,4.0,59,0.00,,---,0.00,VWS V15.00,2014-01-13 00:52:00,
2014-01-12 18:54:00,43.3,30.0,29.58,WNW,291,3.0,4.0,59,0.00,,---,0.00,VWS V15.00,2014-01-13 00:54:00,
2014-01-12 18:55:00,43.3,30.0,29.58,WNW,291,4.0,4.0,59,0.00,,---,0.00,VWS V15.00,2014-01-13 00:55:00,
2014-01-12 18:56:00,43.3,30.0,29.58,West,280,3.0,4.0,59,0.00,,---,0.00,VWS V15.00,2014-01-13 00:56:00,
2014-01-12 18:57:00,43.5,30.1,29.58,West,280,3.0,4.0,59,0.00,,---,0.00,VWS V15.00,2014-01-13 00:57:00,
2014-01-12 18:58:00,43.5,30.1,29.58,West,279,3.0,4.0,59,0.00,,---,0.00,VWS V15.00,2014-01-13 00:58:00,
2014-01-12 18:59:00,43.3,30.0,29.59,WSW,254,2.0,4.0,59,0.00,,---,0.00,VWS V15.00,2014-01-13 00:59:00,
2014-01-12 19:00:00,43.3,30.0,29.59,WSW,254,3.0,3.0,59,0.00,,---,0.00,VWS V15.00,2014-01-13 01:00:00,
2014-01-12 19:01:00,43.2,29.9,29.59,WSW,254,3.0,4.0,59,0.00,,---,0.00,VWS V15.00,2014-01-13 01:01:00,
2014-01-12 19:02:00,43.2,30.3,29.59,WSW,254,4.0,4.0,60,0.00,,---,0.00,VWS V15.00,2014-01-13 01:02:00,
2014-01-12 19:03:00,43.1,30.2,29.59,WSW,254,4.0,4.0,60,0.00,,---,0.00,VWS V15.00,2014-01-13 01:03:00,
2014-01-12 19:04:00,42.9,30.4,29.59,WSW,254,3.0,4.0,61,0.00,,---,0.00,VWS V15.00,2014-01-13 01:04:00,
2014-01-12 19:05:00,42.9,30.4,29.59,WSW,254,4.0,4.0,61,0.00,,---,0.00,VWS V15.00,2014-01-13 01:05:00,
2014-01-12 19:06:00,42.9,30.4,29.59,WSW,254,4.0,4.0,61,0.00,,---,0.00,VWS V15.00,2014-01-13 01:06:00,
2014-01-12 19:07:00,42.9,30.4,29.59,WSW,248,5.0,6.0,61,0.00,,---,0.00,VWS V15.00,2014-01-13 01:07:00,
2014-01-12 19:08:00,43.1,30.2,29.59,WSW,248,3.0,6.0,60,0.00,,---,0.00,VWS V15.00,2014-01-13 01:08:00,
2014-01-12 19:10:00,43.1,30.2,29.59,WSW,248,4.0,6.0,60,0.00,,---,0.00,VWS V15.00,2014-01-13 01:10:00,
2014-01-12 19:11:00,43.1,30.2,29.59,WSW,248,3.0,3.0,60,0.00,,---,0.00,VWS V15.00,2014-01-13 01:11:00,
2014-01-12 19:12:00,43.1,30.2,29.59,WSW,248,4.0,4.0,60,0.00,,---,0.00,VWS V15.00,2014-01-13 01:12:00,
2014-01-12 19:13:00,43.1,30.2,29.59,WSW,244,3.0,5.0,60,0.00,,---,0.00,VWS V15.00,2014-01-13 01:13:00,
2014-01-12 19:15:00,42.8,29.9,29.61,SW,234,2.0,5.0,60,0.00,,---,0.00,VWS V15.00,2014-01-13 01:15:00,
2014-01-12 19:16:00,42.6,30.1,29.61,SW,235,2.0,5.0,61,0.00,,---,0.00,VWS V15.00,2014-01-13 01:16:00,
2014-01-12 19:17:00,42.5,30.0,29.61,SW,235,2.0,5.0,61,0.00,,---,0.00,VWS V15.00,2014-01-13 01:17:00,
2014-01-12 19:18:00,42.2,30.1,29.61,SW,235,2.0,5.0,62,0.00,,---,0.00,VWS V15.00,2014-01-13 01:18:00,
2014-01-12 19:20:00,41.6,30.0,29.61,SW,235,2.0,2.0,63,0.00,,---,0.00,VWS V15.00,2014-01-13 01:20:00,
2014-01-12 19:21:00,41.5,29.9,29.61,SW,235,2.0,2.0,63,0.00,,---,0.00,VWS V15.00,2014-01-13 01:21:00,
2014-01-12 19:22:00,41.3,30.1,29.61,SW,235,3.0,3.0,64,0.00,,---,0.00,VWS V15.00,2014-01-13 01:22:00,
2014-01-12 19:23:00,41.1,30.2,29.61,SW,235,1.0,3.0,65,0.00,,---,0.00,VWS V15.00,2014-01-13 01:23:00,
2014-01-12 19:25:00,40.8,30.0,29.61,SW,235,1.0,3.0,65,0.00,,---,0.00,VWS V15.00,2014-01-13 01:25:00,
2014-01-12 19:26:00,40.6,29.8,29.61,SW,235,1.0,3.0,65,0.00,,---,0.00,VWS V15.00,2014-01-13 01:26:00,
2014-01-12 19:27:00,40.5,29.7,29.61,SW,235,2.0,3.0,65,0.00,,---,0.00,VWS V15.00,2014-01-13 01:27:00,
2014-01-12 19:28:00,40.3,30.2,29.61,SW,235,3.0,4.0,67,0.00,,---,0.00,VWS V15.00,2014-01-13 01:28:00,
2014-01-12 19:30:00,40.2,30.1,29.62,SW,236,2.0,3.0,67,0.00,,---,0.00,VWS V15.00,2014-01-13 01:30:00,
2014-01-12 19:31:00,40.2,29.8,29.62,SW,236,2.0,3.0,66,0.00,,---,0.00,VWS V15.00,2014-01-13 01:31:00,
2014-01-12 19:32:00,40.2,29.8,29.62,SW,236,2.0,3.0,66,0.00,,---,0.00,VWS V15.00,2014-01-13 01:32:00,
2014-01-12 19:33:00,40.2,29.8,29.62,SW,236,3.0,3.0,66,0.00,,---,0.00,VWS V15.00,2014-01-13 01:33:00,
2014-01-12 19:36:00,40.1,30.0,29.62,SW,236,2.0,4.0,67,0.00,,---,0.00,VWS V15.00,2014-01-13 01:36:00,
2014-01-12 19:37:00,40.1,30.0,29.62,SW,236,3.0,4.0,67,0.00,,---,0.00,VWS V15.00,2014-01-13 01:37:00,
2014-01-12 19:38:00,40.2,30.1,29.62,WSW,244,2.0,4.0,67,0.00,,---,0.00,VWS V15.00,2014-01-13 01:38:00,
2014-01-12 19:39:00,40.2,30.1,29.62,WSW,244,2.0,4.0,67,0.00,,---,0.00,VWS V15.00,2014-01-13 01:39:00,
2014-01-12 19:40:00,40.3,29.9,29.62,SW,225,3.0,4.0,66,0.00,,---,0.00,VWS V15.00,2014-01-13 01:40:00,
2014-01-12 19:41:00,40.5,30.0,29.62,WSW,244,2.0,3.0,66,0.00,,---,0.00,VWS V15.00,2014-01-13 01:41:00,
2014-01-12 19:42:00,40.5,30.0,29.62,WSW,244,2.0,3.0,66,0.00,,---,0.00,VWS V15.00,2014-01-13 01:42:00,
2014-01-12 19:43:00,40.5,30.0,29.62,WSW,244,2.0,3.0,66,0.00,,---,0.00,VWS V15.00,2014-01-13 01:43:00,
2014-01-12 19:44:00,40.5,30.0,29.62,WSW,244,2.0,3.0,66,0.00,,---,0.00,VWS V15.00,2014-01-13 01:44:00,
2014-01-12 19:46:00,40.3,29.9,29.63,WSW,244,3.0,3.0,66,0.00,,---,0.00,VWS V15.00,2014-01-13 01:46:00,
2014-01-12 19:47:00,40.3,29.9,29.63,WSW,244,2.0,3.0,66,0.00,,---,0.00,VWS V15.00,2014-01-13 01:47:00,
2014-01-12 19:48:00,40.2,30.1,29.63,WSW,244,2.0,3.0,67,0.00,,---,0.00,VWS V15.00,2014-01-13 01:48:00,
2014-01-12 19:49:00,40.2,30.1,29.63,WSW,244,2.0,3.0,67,0.00,,---,0.00,VWS V15.00,2014-01-13 01:49:00,
2014-01-12 19:50:00,40.1,30.0,29.63,WSW,248,2.0,3.0,67,0.00,,---,0.00,VWS V15.00,2014-01-13 01:50:00,
2014-01-12 19:51:00,39.9,29.9,29.63,WSW,244,3.0,3.0,67,0.00,,---,0.00,VWS V15.00,2014-01-13 01:51:00,
2014-01-12 19:52:00,39.9,29.9,29.63,WSW,244,3.0,3.0,67,0.00,,---,0.00,VWS V15.00,2014-01-13 01:52:00,
2014-01-12 19:53:00,39.8,30.1,29.63,WSW,244,3.0,4.0,68,0.00,,---,0.00,VWS V15.00,2014-01-13 01:53:00,
2014-01-12 19:54:00,39.8,30.1,29.63,WSW,244,2.0,4.0,68,0.00,,---,0.00,VWS V15.00,2014-01-13 01:54:00,
2014-01-12 19:56:00,39.6,29.9,29.63,WSW,244,1.0,4.0,68,0.00,,---,0.00,VWS V15.00,2014-01-13 01:56:00,
2014-01-12 19:57:00,39.6,29.9,29.63,WSW,244,1.0,4.0,68,0.00,,---,0.00,VWS V15.00,2014-01-13 01:57:00,
2014-01-12 19:58:00,39.6,29.9,29.63,WSW,244,3.0,4.0,68,0.00,,---,0.00,VWS V15.00,2014-01-13 01:58:00,
2014-01-12 19:59:00,39.5,29.8,29.63,WSW,244,2.0,4.0,68,0.00,,---,0.00,VWS V15.00,2014-01-13 01:59:00,
2014-01-12 20:00:00,39.5,29.8,29.63,WSW,248,2.0,4.0,68,0.00,,---,0.00,VWS V15.00,2014-01-13 02:00:00,
2014-01-12 20:01:00,39.5,29.8,29.63,WSW,244,2.0,3.0,68,0.00,,---,0.00,VWS V15.00,2014-01-13 02:01:00,
2014-01-12 20:02:00,39.5,29.8,29.63,WSW,244,2.0,3.0,68,0.00,,---,0.00,VWS V15.00,2014-01-13 02:02:00,
2014-01-12 20:03:00,39.5,29.8,29.63,WSW,244,2.0,3.0,68,0.00,,---,0.00,VWS V15.00,2014-01-13 02:03:00,
2014-01-12 20:04:00,39.5,29.8,29.63,WSW,244,2.0,3.0,68,0.00,,---,0.00,VWS V15.00,2014-01-13 02:04:00,
2014-01-12 20:07:00,39.5,29.8,29.63,WSW,244,2.0,3.0,68,0.00,,---,0.00,VWS V15.00,2014-01-13 02:07:00,
2014-01-12 20:08:00,39.3,29.6,29.63,WSW,244,2.0,3.0,68,0.00,,---,0.00,VWS V15.00,2014-01-13 02:08:00,
2014-01-12 20:09:00,39.2,29.9,29.63,WSW,244,1.0,3.0,69,0.00,,---,0.00,VWS V15.00,2014-01-13 02:09:00,
2014-01-12 20:10:00,39.2,29.9,29.63,WSW,248,2.0,3.0,69,0.00,,---,0.00,VWS V15.00,2014-01-13 02:10:00,
2014-01-12 20:12:00,38.9,29.6,29.63,WSW,244,2.0,2.0,69,0.00,,---,0.00,VWS V15.00,2014-01-13 02:12:00,
2014-01-12 20:13:00,38.6,29.3,29.63,WSW,244,2.0,2.0,69,0.00,,---,0.00,VWS V15.00,2014-01-13 02:13:00,
2014-01-12 20:14:00,38.5,29.6,29.65,WSW,244,3.0,3.0,70,0.00,,---,0.00,VWS V15.00,2014-01-13 02:14:00,
2014-01-12 20:17:00,38.2,29.3,29.65,WSW,244,4.0,4.0,70,0.00,,---,0.00,VWS V15.00,2014-01-13 02:17:00,
2014-01-12 20:18:00,37.9,29.4,29.65,WSW,244,6.0,6.0,71,0.00,,---,0.00,VWS V15.00,2014-01-13 02:18:00,
2014-01-12 20:19:00,37.9,29.7,29.65,WSW,244,6.0,6.0,72,0.00,,---,0.00,VWS V15.00,2014-01-13 02:19:00,
2014-01-12 20:20:00,37.9,29.7,29.65,WSW,248,3.0,7.0,72,0.00,,---,0.00,VWS V15.00,2014-01-13 02:20:00,
2014-01-12 20:22:00,37.9,29.4,29.65,WSW,244,5.0,7.0,71,0.00,,---,0.00,VWS V15.00,2014-01-13 02:22:00,
2014-01-12 20:23:00,37.8,29.6,29.65,WSW,244,4.0,7.0,72,0.00,,---,0.00,VWS V15.00,2014-01-13 02:23:00,
2014-01-12 20:24:00,37.8,29.6,29.65,WSW,244,4.0,7.0,72,0.00,,---,0.00,VWS V15.00,2014-01-13 02:24:00,
2014-01-12 20:27:00,37.6,29.7,29.65,WSW,245,4.0,7.0,73,0.00,,---,0.00,VWS V15.00,2014-01-13 02:27:00,
2014-01-12 20:28:00,37.6,29.7,29.65,WSW,247,5.0,7.0,73,0.00,,---,0.00,VWS V15.00,2014-01-13 02:28:00,
2014-01-12 20:30:00,37.6,29.7,29.68,WSW,252,5.0,7.0,73,0.00,,---,0.00,VWS V15.00,2014-01-13 02:30:00,
2014-01-12 20:32:00,37.6,29.7,29.68,WSW,254,6.0,6.0,73,0.00,,---,0.00,VWS V15.00,2014-01-13 02:32:00,
2014-01-12 20:33:00,37.6,29.7,29.68,WSW,254,5.0,6.0,73,0.00,,---,0.00,VWS V15.00,2014-01-13 02:33:00,
2014-01-12 20:35:00,37.5,30.0,29.68,WSW,254,4.0,6.0,74,0.00,,---,0.00,VWS V15.00,2014-01-13 02:35:00,
2014-01-12 20:37:00,37.5,30.0,29.68,WSW,255,4.0,6.0,74,0.00,,---,0.00,VWS V15.00,2014-01-13 02:37:00,
2014-01-12 20:38:00,37.5,30.0,29.68,WSW,255,4.0,6.0,74,0.00,,---,0.00,VWS V15.00,2014-01-13 02:38:00,
2014-01-12 20:40:00,37.5,30.0,29.68,WSW,255,4.0,5.0,74,0.00,,---,0.00,VWS V15.00,2014-01-13 02:40:00,
2014-01-12 20:42:00,37.5,30.3,29.68,WSW,255,4.0,5.0,75,0.00,,---,0.00,VWS V15.00,2014-01-13 02:42:00,
2014-01-12 20:43:00,37.5,30.3,29.68,WSW,255,4.0,5.0,75,0.00,,---,0.00,VWS V15.00,2014-01-13 02:43:00,
2014-01-12 20:44:00,37.6,30.4,29.68,WSW,255,4.0,5.0,75,0.00,,---,0.00,VWS V15.00,2014-01-13 02:44:00,
2014-01-12 20:45:00,37.8,30.3,29.70,WSW,255,3.0,5.0,74,0.00,,---,0.00,VWS V15.00,2014-01-13 02:45:00,
2014-01-12 20:47:00,37.9,30.4,29.70,WSW,255,4.0,5.0,74,0.00,,---,0.00,VWS V15.00,2014-01-13 02:47:00,
2014-01-12 20:48:00,37.9,30.4,29.70,WSW,257,5.0,5.0,74,0.00,,---,0.00,VWS V15.00,2014-01-13 02:48:00,
2014-01-12 20:49:00,37.9,30.0,29.70,WSW,257,4.0,5.0,73,0.00,,---,0.00,VWS V15.00,2014-01-13 02:49:00,
2014-01-12 20:50:00,37.9,30.0,29.70,WSW,258,5.0,5.0,73,0.00,,---,0.00,VWS V15.00,2014-01-13 02:50:00,
2014-01-12 20:52:00,37.9,30.0,29.70,WSW,258,5.0,6.0,73,0.00,,---,0.00,VWS V15.00,2014-01-13 02:52:00,
2014-01-12 20:53:00,37.9,30.0,29.70,WSW,258,4.0,6.0,73,0.00,,---,0.00,VWS V15.00,2014-01-13 02:53:00,
2014-01-12 20:54:00,37.9,30.0,29.70,WSW,258,5.0,6.0,73,0.00,,---,0.00,VWS V15.00,2014-01-13 02:54:00,
2014-01-12 20:55:00,37.9,30.4,29.70,WSW,258,5.0,6.0,74,0.00,,---,0.00,VWS V15.00,2014-01-13 02:55:00,
2014-01-12 20:57:00,38.0,30.5,29.70,WSW,258,5.0,7.0,74,0.00,,---,0.00,VWS V15.00,2014-01-13 02:57:00,
2014-01-12 20:58:00,38.2,30.7,29.70,WSW,258,4.0,7.0,74,0.00,,---,0.00,VWS V15.00,2014-01-13 02:58:00,
2014-01-12 20:59:00,38.3,30.4,29.70,WSW,258,4.0,7.0,73,0.00,,---,0.00,VWS V15.00,2014-01-13 02:59:00,
2014-01-12 21:00:00,38.3,30.4,29.71,WSW,258,4.0,4.0,73,0.00,,---,0.00,VWS V15.00,2014-01-13 03:00:00,
2014-01-12 21:02:00,38.5,30.6,29.71,WSW,258,5.0,5.0,73,0.00,,---,0.00,VWS V15.00,2014-01-13 03:02:00,
2014-01-12 21:03:00,38.5,30.6,29.71,WSW,258,4.0,5.0,73,0.00,,---,0.00,VWS V15.00,2014-01-13 03:03:00,
2014-01-12 21:04:00,38.5,30.6,29.71,West,259,5.0,5.0,73,0.00,,---,0.00,VWS V15.00,2014-01-13 03:04:00,
2014-01-12 21:06:00,38.3,30.4,29.71,West,259,3.0,5.0,73,0.00,,---,0.00,VWS V15.00,2014-01-13 03:06:00,
2014-01-12 21:07:00,38.3,30.8,29.71,West,279,3.0,5.0,74,0.00,,---,0.00,VWS V15.00,2014-01-13 03:07:00,
2014-01-12 21:08:00,38.3,30.8,29.71,West,279,3.0,5.0,74,0.00,,---,0.00,VWS V15.00,2014-01-13 03:08:00,
2014-01-12 21:09:00,38.3,30.8,29.71,West,279,2.0,5.0,74,0.00,,---,0.00,VWS V15.00,2014-01-13 03:09:00,
2014-01-12 21:10:00,38.5,31.0,29.71,West,270,3.0,5.0,74,0.00,,---,0.00,VWS V15.00,2014-01-13 03:10:00,
2014-01-12 21:11:00,38.5,31.0,29.71,West,279,2.0,2.0,74,0.00,,---,0.00,VWS V15.00,2014-01-13 03:11:00,
2014-01-12 21:13:00,38.6,30.7,29.71,WNW,296,2.0,3.0,73,0.00,,---,0.00,VWS V15.00,2014-01-13 03:13:00,
2014-01-12 21:14:00,38.8,30.9,29.70,WNW,296,1.0,3.0,73,0.00,,---,0.00,VWS V15.00,2014-01-13 03:14:00,
2014-01-12 21:16:00,38.9,31.0,29.70,WNW,296,1.0,3.0,73,0.00,,---,0.00,VWS V15.00,2014-01-13 03:16:00,
2014-01-12 21:18:00,39.1,31.2,29.70,WNW,288,2.0,3.0,73,0.00,,---,0.00,VWS V15.00,2014-01-13 03:18:00,
2014-01-12 21:19:00,39.2,31.3,29.70,WNW,288,3.0,3.0,73,0.00,,---,0.00,VWS V15.00,2014-01-13 03:19:00,
2014-01-12 21:20:00,39.2,31.3,29.70,WNW,288,3.0,3.0,73,0.00,,---,0.00,VWS V15.00,2014-01-13 03:20:00,
2014-01-12 21:21:00,39.3,31.4,29.70,WNW,288,3.0,3.0,73,0.00,,---,0.00,VWS V15.00,2014-01-13 03:21:00,
2014-01-12 21:23:00,39.5,31.6,29.70,WNW,286,3.0,5.0,73,0.00,,---,0.00,VWS V15.00,2014-01-13 03:23:00,
2014-01-12 21:24:00,39.6,31.3,29.70,WNW,294,5.0,6.0,72,0.00,,---,0.00,VWS V15.00,2014-01-13 03:24:00,
2014-01-12 21:25:00,39.6,31.3,29.70,WNW,291,3.0,6.0,72,0.00,,---,0.00,VWS V15.00,2014-01-13 03:25:00,
2014-01-12 21:26:00,39.9,31.6,29.70,WNW,294,2.0,6.0,72,0.00,,---,0.00,VWS V15.00,2014-01-13 03:26:00,
2014-01-12 21:28:00,40.1,31.8,29.70,WNW,292,3.0,6.0,72,0.00,,---,0.00,VWS V15.00,2014-01-13 03:28:00,
2014-01-12 21:29:00,40.2,31.6,29.70,WNW,299,5.0,6.0,71,0.00,,---,0.00,VWS V15.00,2014-01-13 03:29:00,
2014-01-12 21:30:00,40.3,31.7,29.71,WNW,303,5.0,6.0,71,0.00,,---,0.00,VWS V15.00,2014-01-13 03:30:00,
2014-01-12 21:31:00,40.3,31.7,29.71,WNW,292,3.0,7.0,71,0.00,,---,0.00,VWS V15.00,2014-01-13 03:31:00,
2014-01-12 21:33:00,40.6,32.0,29.71,WNW,293,5.0,9.0,71,0.00,,---,0.00,VWS V15.00,2014-01-13 03:33:00,
2014-01-12 21:34:00,40.9,31.9,29.71,NW,311,6.0,9.0,70,0.00,,---,0.00,VWS V15.00,2014-01-13 03:34:00,
2014-01-12 21:35:00,41.1,32.1,29.71,NW,304,4.0,9.0,70,0.00,,---,0.00,VWS V15.00,2014-01-13 03:35:00,
2014-01-12 21:36:00,41.3,32.3,29.71,WNW,296,7.0,9.0,70,0.00,,---,0.00,VWS V15.00,2014-01-13 03:36:00,
2014-01-12 21:38:00,41.5,32.1,29.71,WNW,287,5.0,10.0,69,0.00,,---,0.00,VWS V15.00,2014-01-13 03:38:00,
2014-01-12 21:39:00,41.6,32.2,29.71,WNW,290,5.0,10.0,69,0.00,,---,0.00,VWS V15.00,2014-01-13 03:39:00,
2014-01-12 21:40:00,41.8,32.4,29.71,WNW,286,8.0,10.0,69,0.00,,---,0.00,VWS V15.00,2014-01-13 03:40:00,
2014-01-12 21:41:00,41.9,32.1,29.71,West,270,6.0,9.0,68,0.00,,---,0.00,VWS V15.00,2014-01-13 03:41:00,
2014-01-12 21:43:00,42.1,32.3,29.71,WNW,284,10.0,14.0,68,0.00,,---,0.00,VWS V15.00,2014-01-13 03:43:00,
2014-01-12 21:44:00,42.2,32.4,29.72,WNW,294,5.0,14.0,68,0.00,,---,0.00,VWS V15.00,2014-01-13 03:44:00,
2014-01-12 21:45:00,42.2,32.4,29.72,WNW,288,4.0,14.0,68,0.00,,---,0.00,VWS V15.00,2014-01-13 03:45:00,
2014-01-12 21:47:00,42.3,32.1,29.72,WNW,290,5.0,14.0,67,0.00,,---,0.00,VWS V15.00,2014-01-13 03:47:00,
2014-01-12 21:48:00,42.5,32.3,29.72,WNW,288,10.0,14.0,67,0.00,,---,0.00,VWS V15.00,2014-01-13 03:48:00,
2014-01-12 21:49:00,42.6,32.4,29.72,West,281,9.0,14.0,67,0.00,,---,0.00,VWS V15.00,2014-01-13 03:49:00,
2014-01-12 21:50:00,42.6,32.4,29.72,West,273,8.0,16.0,67,0.00,,---,0.00,VWS V15.00,2014-01-13 03:50:00,
2014-01-12 21:52:00,42.9,32.3,29.72,WNW,290,14.0,15.0,66,0.00,,---,0.00,VWS V15.00,2014-01-13 03:52:00,
2014-01-12 21:53:00,43.1,32.5,29.72,WNW,296,10.0,16.0,66,0.00,,---,0.00,VWS V15.00,2014-01-13 03:53:00,
2014-01-12 21:54:00,43.2,32.2,29.72,WNW,292,11.0,16.0,65,0.00,,---,0.00,VWS V15.00,2014-01-13 03:54:00,
2014-01-12 21:55:00,43.2,32.2,29.72,WNW,294,14.0,16.0,65,0.00,,---,0.00,VWS V15.00,2014-01-13 03:55:00,
2014-01-12 21:57:00,43.3,32.3,29.72,West,277,6.0,16.0,65,0.00,,---,0.00,VWS V15.00,2014-01-13 03:57:00,
2014-01-12 21:58:00,43.3,32.3,29.72,WNW,284,9.0,16.0,65,0.00,,---,0.00,VWS V15.00,2014-01-13 03:58:00,
2014-01-12 21:59:00,43.3,32.3,29.72,NW,315,11.0,16.0,65,0.00,,---,0.00,VWS V15.00,2014-01-13 03:59:00,
2014-01-12 22:00:00,43.3,32.3,29.72,WNW,294,7.0,16.0,65,0.00,,---,0.00,VWS V15.00,2014-01-13 04:00:00,
2014-01-12 22:02:00,43.2,32.6,29.72,West,277,10.0,16.0,66,0.00,,---,0.00,VWS V15.00,2014-01-13 04:02:00,
2014-01-12 22:03:00,43.2,32.6,29.72,NW,311,5.0,16.0,66,0.00,,---,0.00,VWS V15.00,2014-01-13 04:03:00,
2014-01-12 22:04:00,43.1,32.5,29.72,WNW,300,9.0,16.0,66,0.00,,---,0.00,VWS V15.00,2014-01-13 04:04:00,
2014-01-12 22:05:00,43.1,32.5,29.72,WNW,285,10.0,16.0,66,0.00,,---,0.00,VWS V15.00,2014-01-13 04:05:00,
2014-01-12 22:07:00,43.1,32.5,29.72,WNW,296,9.0,16.0,66,0.00,,---,0.00,VWS V15.00,2014-01-13 04:07:00,
2014-01-12 22:08:00,43.1,32.5,29.72,NW,308,10.0,16.0,66,0.00,,---,0.00,VWS V15.00,2014-01-13 04:08:00,
2014-01-12 22:09:00,43.1,32.5,29.72,WNW,296,13.0,16.0,66,0.00,,---,0.00,VWS V15.00,2014-01-13 04:09:00,
2014-01-12 22:10:00,43.1,32.5,29.72,WNW,301,10.0,16.0,66,0.00,,---,0.00,VWS V15.00,2014-01-13 04:10:00,
2014-01-12 22:11:00,43.1,32.5,29.72,NW,306,9.0,15.0,66,0.00,,---,0.00,VWS V15.00,2014-01-13 04:11:00,
2014-01-12 22:12:00,43.1,32.5,29.72,WNW,292,13.0,16.0,66,0.00,,---,0.00,VWS V15.00,2014-01-13 04:12:00,
2014-01-12 22:13:00,43.2,32.6,29.72,WNW,300,14.0,16.0,66,0.00,,---,0.00,VWS V15.00,2014-01-13 04:13:00,
2014-01-12 22:14:00,43.2,32.6,29.72,WNW,292,13.0,16.0,66,0.00,,---,0.00,VWS V15.00,2014-01-13 04:14:00,
2014-01-12 22:15:00,43.2,32.6,29.72,WNW,294,11.0,16.0,66,0.00,,---,0.00,VWS V15.00,2014-01-13 04:15:00,
2014-01-12 22:16:00,43.3,32.3,29.72,WNW,292,13.0,16.0,65,0.00,,---,0.00,VWS V15.00,2014-01-13 04:16:00,
2014-01-12 22:17:00,43.3,32.3,29.72,WNW,291,14.0,16.0,65,0.00,,---,0.00,VWS V15.00,2014-01-13 04:17:00,
2014-01-12 22:18:00,43.5,32.5,29.72,West,267,9.0,16.0,65,0.00,,---,0.00,VWS V15.00,2014-01-13 04:18:00,
2014-01-12 22:20:00,43.5,32.5,29.72,WNW,288,10.0,10.0,65,0.00,,---,0.00,VWS V15.00,2014-01-13 04:20:00,
2014-01-12 22:21:00,43.5,32.5,29.72,WNW,285,16.0,16.0,65,0.00,,---,0.00,VWS V15.00,2014-01-13 04:21:00,
2014-01-12 22:22:00,43.5,32.5,29.72,WNW,295,12.0,17.0,65,0.00,,---,0.00,VWS V15.00,2014-01-13 04:22:00,
2014-01-12 22:23:00,43.5,32.9,29.72,WNW,300,6.0,18.0,66,0.00,,---,0.00,VWS V15.00,2014-01-13 04:23:00,
2014-01-12 22:25:00,43.5,32.9,29.72,NW,309,11.0,18.0,66,0.00,,---,0.00,VWS V15.00,2014-01-13 04:25:00,
2014-01-12 22:26:00,43.5,32.9,29.72,West,271,10.0,18.0,66,0.00,,---,0.00,VWS V15.00,2014-01-13 04:26:00,
2014-01-12 22:27:00,43.5,32.9,29.72,WNW,294,7.0,18.0,66,0.00,,---,0.00,VWS V15.00,2014-01-13 04:27:00,
2014-01-12 22:28:00,43.5,32.9,29.72,WNW,302,14.0,18.0,66,0.00,,---,0.00,VWS V15.00,2014-01-13 04:28:00,
2014-01-12 22:29:00,43.5,32.9,29.72,WNW,298,13.0,18.0,66,0.00,,---,0.00,VWS V15.00,2014-01-13 04:29:00,
2014-01-12 22:30:00,43.5,32.9,29.73,WNW,292,6.0,7.0,66,0.00,,---,0.00,VWS V15.00,2014-01-13 04:30:00,
2014-01-12 22:31:00,43.5,33.3,29.73,NW,315,13.0,14.0,67,0.00,,---,0.00,VWS V15.00,2014-01-13 04:31:00,
2014-01-12 22:32:00,43.5,33.3,29.73,NW,323,9.0,14.0,67,0.00,,---,0.00,VWS V15.00,2014-01-13 04:32:00,
2014-01-12 22:33:00,43.5,33.3,29.73,WNW,296,6.0,14.0,67,0.00,,---,0.00,VWS V15.00,2014-01-13 04:33:00,
2014-01-12 22:34:00,43.5,33.3,29.73,WNW,301,3.0,14.0,67,0.00,,---,0.00,VWS V15.00,2014-01-13 04:34:00,
2014-01-12 22:35:00,43.6,33.4,29.73,WNW,301,11.0,14.0,67,0.00,,---,0.00,VWS V15.00,2014-01-13 04:35:00,
2014-01-12 22:36:00,43.6,33.4,29.73,North,360,11.0,14.0,67,0.00,,---,0.00,VWS V15.00,2014-01-13 04:36:00,
2014-01-12 22:37:00,43.8,33.6,29.73,NNW,329,8.0,14.0,67,0.00,,---,0.00,VWS V15.00,2014-01-13 04:37:00,
2014-01-12 22:38:00,43.9,33.7,29.73,NNW,340,4.0,14.0,67,0.00,,---,0.00,VWS V15.00,2014-01-13 04:38:00,
2014-01-12 22:39:00,43.9,33.3,29.73,WNW,302,7.0,14.0,66,0.00,,---,0.00,VWS V15.00,2014-01-13 04:39:00,
2014-01-12 22:40:00,44.1,33.5,29.73,WNW,296,10.0,10.0,66,0.00,,---,0.00,VWS V15.00,2014-01-13 04:40:00,
2014-01-12 22:41:00,44.1,33.5,29.73,NNW,333,3.0,12.0,66,0.00,,---,0.00,VWS V15.00,2014-01-13 04:41:00,
2014-01-12 22:42:00,44.2,33.6,29.73,WNW,299,7.0,12.0,66,0.00,,---,0.00,VWS V15.00,2014-01-13 04:42:00,
2014-01-12 22:44:00,44.3,33.7,29.73,WNW,300,3.0,12.0,66,0.00,,---,0.00,VWS V15.00,2014-01-13 04:44:00,
2014-01-12 22:45:00,44.3,33.7,29.72,NNW,348,4.0,12.0,66,0.00,,---,0.00,VWS V15.00,2014-01-13 04:45:00,
2014-01-12 22:46:00,44.3,33.7,29.72,NNW,348,2.0,12.0,66,0.00,,---,0.00,VWS V15.00,2014-01-13 04:46:00,
2014-01-12 22:47:00,44.5,33.9,29.72,NNW,339,4.0,12.0,66,0.00,,---,0.00,VWS V15.00,2014-01-13 04:47:00,
2014-01-12 22:49:00,44.5,33.9,29.72,NNW,345,4.0,12.0,66,0.00,,---,0.00,VWS V15.00,2014-01-13 04:49:00,
2014-01-12 22:50:00,44.5,33.9,29.72,NNW,338,5.0,12.0,66,0.00,,---,0.00,VWS V15.00,2014-01-13 04:50:00,
2014-01-12 22:51:00,44.5,33.9,29.72,NNW,335,1.0,6.0,66,0.00,,---,0.00,VWS V15.00,2014-01-13 04:51:00,
2014-01-12 22:52:00,44.5,33.9,29.72,NNW,348,4.0,6.0,66,0.00,,---,0.00,VWS V15.00,2014-01-13 04:52:00,
2014-01-12 22:53:00,44.6,34.0,29.72,NNW,338,3.0,7.0,66,0.00,,---,0.00,VWS V15.00,2014-01-13 04:53:00,
2014-01-12 22:54:00,44.6,34.0,29.72,NW,318,3.0,7.0,66,0.00,,---,0.00,VWS V15.00,2014-01-13 04:54:00,
2014-01-12 22:56:00,44.6,34.0,29.72,NNW,343,4.0,7.0,66,0.00,,---,0.00,VWS V15.00,2014-01-13 04:56:00,
2014-01-12 22:57:00,44.6,34.0,29.72,West,278,1.0,7.0,66,0.00,,---,0.00,VWS V15.00,2014-01-13 04:57:00,
2014-01-12 22:58:00,44.5,33.9,29.72,WNW,291,2.0,7.0,66,0.00,,---,0.00,VWS V15.00,2014-01-13 04:58:00,
2014-01-12 22:59:00,44.5,33.9,29.72,WNW,293,4.0,7.0,66,0.00,,---,0.00,VWS V15.00,2014-01-13 04:59:00,
2014-01-12 23:00:00,44.5,33.9,29.72,NNW,338,3.0,7.0,66,0.00,,---,0.00,VWS V15.00,2014-01-13 05:00:00,
2014-01-12 23:01:00,44.5,33.9,29.72,NW,309,1.0,2.0,66,0.00,,---,0.00,VWS V15.00,2014-01-13 05:01:00,
2014-01-12 23:06:00,44.3,34.0,29.72,WNW,302,3.0,6.0,67,0.00,,---,0.00,VWS V15.00,2014-01-13 05:06:00,
2014-01-12 23:10:00,44.2,34.0,29.72,NW,315,2.0,6.0,67,0.00,,---,0.00,VWS V15.00,2014-01-13 05:10:00,
2014-01-12 23:11:00,44.2,34.0,29.72,WNW,298,2.0,2.0,67,0.00,,---,0.00,VWS V15.00,2014-01-13 05:11:00,
2014-01-12 23:16:00,44.1,33.9,29.71,WNW,298,1.0,3.0,67,0.00,,---,0.00,VWS V15.00,2014-01-13 05:16:00,
2014-01-12 23:20:00,44.1,33.9,29.71,WNW,292,1.0,3.0,67,0.00,,---,0.00,VWS V15.00,2014-01-13 05:20:00,
2014-01-12 23:21:00,43.9,33.7,29.71,WNW,298,1.0,2.0,67,0.00,,---,0.00,VWS V15.00,2014-01-13 05:21:00,
2014-01-12 23:22:00,43.9,34.0,29.71,WNW,298,0.0,2.0,68,0.00,,---,0.00,VWS V15.00,2014-01-13 05:22:00,
2014-01-12 23:26:00,43.8,33.9,29.71,WNW,298,1.0,2.0,68,0.00,,---,0.00,VWS V15.00,2014-01-13 05:26:00,
2014-01-12 23:27:00,43.8,33.9,29.71,WNW,298,1.0,2.0,68,0.00,,---,0.00,VWS V15.00,2014-01-13 05:27:00,
2014-01-12 23:30:00,43.6,33.8,29.70,WNW,292,1.0,2.0,68,0.00,,---,0.00,VWS V15.00,2014-01-13 05:30:00,
2014-01-12 23:31:00,43.6,33.8,29.70,WNW,298,0.0,0.0,68,0.00,,---,0.00,VWS V15.00,2014-01-13 05:31:00,
2014-01-12 23:32:00,43.5,33.7,29.70,WNW,298,0.0,0.0,68,0.00,,---,0.00,VWS V15.00,2014-01-13 05:32:00,
2014-01-12 23:36:00,43.2,33.7,29.70,WNW,298,0.0,0.0,69,0.00,,---,0.00,VWS V15.00,2014-01-13 05:36:00,
2014-01-12 23:37:00,43.1,33.6,29.70,WNW,298,0.0,0.0,69,0.00,,---,0.00,VWS V15.00,2014-01-13 05:37:00,
2014-01-12 23:40:00,42.8,33.7,29.70,WNW,292,0.0,0.0,70,0.00,,---,0.00,VWS V15.00,2014-01-13 05:40:00,
2014-01-12 23:41:00,42.8,33.7,29.70,WNW,298,0.0,0.0,70,0.00,,---,0.00,VWS V15.00,2014-01-13 05:41:00,
2014-01-12 23:42:00,42.8,33.7,29.70,WNW,298,0.0,0.0,70,0.00,,---,0.00,VWS V15.00,2014-01-13 05:42:00,
2014-01-12 23:46:00,42.3,33.2,29.69,West,273,3.0,3.0,70,0.00,,---,0.00,VWS V15.00,2014-01-13 05:46:00,
2014-01-12 23:47:00,42.3,33.2,29.69,West,273,2.0,3.0,70,0.00,,---,0.00,VWS V15.00,2014-01-13 05:47:00,
2014-01-12 23:50:00,42.1,33.7,29.69,West,270,2.0,4.0,72,0.00,,---,0.00,VWS V15.00,2014-01-13 05:50:00,
2014-01-12 23:51:00,42.1,33.7,29.69,West,273,3.0,4.0,72,0.00,,---,0.00,VWS V15.00,2014-01-13 05:51:00,
2014-01-12 23:52:00,42.1,33.7,29.69,West,273,3.0,4.0,72,0.00,,---,0.00,VWS V15.00,2014-01-13 05:52:00,
2014-01-12 23:53:00,42.1,33.7,29.69,West,273,3.0,4.0,72,0.00,,---,0.00,VWS V15.00,2014-01-13 05:53:00,
2014-01-12 23:56:00,41.9,33.2,29.69,West,273,2.0,4.0,71,0.00,,---,0.00,VWS V15.00,2014-01-13 05:56:00,
2014-01-12 23:57:00,41.9,33.2,29.69,West,273,2.0,4.0,71,0.00,,---,0.00,VWS V15.00,2014-01-13 05:57:00,
2014-01-12 23:58:00,41.9,33.2,29.69,West,273,1.0,4.0,71,0.00,,---,0.00,VWS V15.00,2014-01-13 05:58:00,